M I D A S
Marine Information and Data Acquisition System
Tripno 688 of the Zeeleeuw from 2004-04-26 06:30:06 to 2004-04-26 12:57:17
Back to CruiseResearch ActivitiesStationsMapUnderway DataData graphs

EquipmentUnitsComment
TimeDGPSUTC
LatitudeDGPSDM.mWGS84
LongitudeDGPSDM.mWGS84
TemperatureSBE03/SBE38deg celciusITS90
ConductivitySBE21S/mITS90
SalinitySBE21 Practical Salinity Units
ChlorophylAChelsea fluorimeterg/lCalibrated in Aceton
Missing or incorrect values are displayed as -999
Sea surface data collected by the RV Zeeleeuw from 2004-04-26 06:30:06 to 2004-04-26 12:57:17
                                                                                    Next 1000 lines
Time Latitude Longitude Temperature Conductivity Salinity ChlorophylA
2004-04-26 06:30:17 51°13.597 2°56.099 17.457894 0.08084 0.398426 -0.781249
2004-04-26 06:30:22 51°13.596 2°56.099 17.458439 0.08084 0.398431 -0.814958
2004-04-26 06:30:28 51°13.596 2°56.099 17.459111 0.08084 0.398437 -0.814958
2004-04-26 06:30:32 51°13.596 2°56.099 17.458733 0.08084 0.398442 -0.814958
2004-04-26 06:30:37 51°13.596 2°56.099 17.458272 0.08084 0.398442 -0.814958
2004-04-26 06:30:42 51°13.596 2°56.099 17.4576 0.080944 0.398971 -0.848668
2004-04-26 06:30:47 51°13.596 2°56.099 17.448954 0.08084 0.398448 -0.814958
2004-04-26 06:30:52 51°13.596 2°56.097 17.448954 0.08084 0.398448 -0.814958
2004-04-26 06:30:57 51°13.596 2°56.095 17.399282 0.08084 0.398448 -0.848668
2004-04-26 06:31:02 51°13.597 2°56.092 17.325483 0.08084 0.398448 -0.814958
2004-04-26 06:31:07 51°13.597 2°56.088 17.381932 0.08084 0.398437 -0.814958
2004-04-26 06:31:12 51°13.599 2°56.083 17.40596 0.08084 0.398437 -0.814958
2004-04-26 06:31:18 51°13.601 2°56.076 17.426663 0.08084 0.398442 -0.781249
2004-04-26 06:31:23 51°13.603 2°56.069 17.426663 0.08084 0.398442 -0.781249
2004-04-26 06:31:28 51°13.605 2°56.062 17.427712 0.08084 0.398448 -0.814958
2004-04-26 06:31:33 51°13.607 2°56.055 17.448031 0.08084 0.398453 -0.848668
2004-04-26 06:31:38 51°13.61 2°56.047 17.47212 0.08084 0.398459 -0.814958
2004-04-26 06:31:42 51°13.612 2°56.04 17.469476 0.080944 0.398999 -0.814958
2004-04-26 06:31:48 51°13.615 2°56.03 17.469476 0.080944 0.398999 -0.814958
2004-04-26 06:31:53 51°13.618 2°56.021 17.461125 0.08084 0.398476 -0.848668
2004-04-26 06:31:58 51°13.621 2°56.011 17.457516 0.08084 0.398481 -0.814958
2004-04-26 06:32:02 51°13.624 2°56.004 17.456719 0.08084 0.398476 -0.814958
2004-04-26 06:32:09 51°13.629 2°55.989 17.456467 0.08084 0.398476 -0.848668
2004-04-26 06:32:14 51°13.632 2°55.979 17.448702 0.08084 0.398476 -0.814958
2004-04-26 06:32:19 51°13.635 2°55.968 17.448702 0.08084 0.398476 -0.814958
2004-04-26 06:32:23 51°13.638 2°55.959 17.447653 0.08084 0.398476 -0.848668
2004-04-26 06:32:29 51°13.642 2°55.945 17.451472 0.08084 0.398476 -0.814958
2004-04-26 06:32:34 51°13.645 2°55.934 17.474218 0.08084 0.398476 -0.814958
2004-04-26 06:32:39 51°13.648 2°55.923 17.479336 0.08084 0.398476 -0.814958
2004-04-26 06:32:43 51°13.651 2°55.914 17.476064 0.08084 0.398481 -0.814958
2004-04-26 06:32:49 51°13.653 2°55.9 17.476441 0.08084 0.398476 -0.814958
2004-04-26 06:32:54 51°13.656 2°55.888 17.476441 0.08084 0.398476 -0.814958
2004-04-26 06:32:59 51°13.658 2°55.877 17.473504 0.08084 0.398492 -0.848668
2004-04-26 06:33:03 51°13.66 2°55.867 17.468805 0.08084 0.398498 -0.848668
2004-04-26 06:33:09 51°13.662 2°55.853 17.471029 0.08084 0.398492 -0.814958
2004-04-26 06:33:14 51°13.663 2°55.841 17.46465 0.08084 0.398503 -0.814958
2004-04-26 06:33:19 51°13.664 2°55.829 17.464902 0.08084 0.398509 -0.848668
2004-04-26 06:33:23 51°13.665 2°55.819 17.464902 0.08084 0.398509 -0.848668
2004-04-26 06:33:29 51°13.666 2°55.805 17.464692 0.08084 0.398503 -0.814958
2004-04-26 06:33:34 51°13.666 2°55.794 17.495948 0.08084 0.398503 -0.814958
2004-04-26 06:33:39 51°13.666 2°55.785 17.480091 0.08084 0.398503 -0.814958
2004-04-26 06:33:43 51°13.666 2°55.779 17.508531 0.08084 0.398509 -0.814958
2004-04-26 06:33:49 51°13.666 2°55.772 17.503121 0.08084 0.398503 -0.848668
2004-04-26 06:33:53 51°13.666 2°55.768 17.503121 0.08084 0.398503 -0.848668
2004-04-26 06:33:57 51°13.666 2°55.765 17.491376 0.08084 0.398503 -0.814958
2004-04-26 06:34:03 51°13.665 2°55.763 17.483909 0.08084 0.398498 -0.781249
2004-04-26 06:34:09 51°13.666 2°55.761 17.501191 0.08084 0.398503 -0.848668
2004-04-26 06:34:13 51°13.666 2°55.761 17.50635 0.08084 0.398509 -0.814958
2004-04-26 06:34:18 51°13.668 2°55.762 17.556868 0.08084 0.39852 -0.814958
2004-04-26 06:34:23 51°13.67 2°55.764 17.556868 0.08084 0.39852 -0.814958
2004-04-26 06:34:27 51°13.672 2°55.766 17.659299 0.08084 0.398526 -0.814958
2004-04-26 06:34:33 51°13.676 2°55.768 17.705481 0.08084 0.398526 -0.848668
2004-04-26 06:34:37 51°13.68 2°55.769 17.817797 0.08084 0.39852 -0.814958
2004-04-26 06:34:43 51°13.687 2°55.769 17.817546 0.08084 0.398526 -0.848668
2004-04-26 06:34:47 51°13.692 2°55.767 17.79884 0.08084 0.398537 -0.814958
2004-04-26 06:34:53 51°13.7 2°55.764 17.79884 0.08084 0.398537 -0.814958
2004-04-26 06:34:58 51°13.706 2°55.759 17.770854 0.08084 0.398548 -0.848668
2004-04-26 06:35:03 51°13.712 2°55.753 17.620957 0.08084 0.398559 -0.781249
2004-04-26 06:35:07 51°13.717 2°55.749 17.55867 0.08084 0.398554 -0.848668
2004-04-26 06:35:13 51°13.724 2°55.741 17.543372 0.08084 0.398548 -0.814958
2004-04-26 06:35:18 51°13.731 2°55.734 17.543372 0.08084 0.398548 -0.814958
2004-04-26 06:35:23 51°13.737 2°55.726 17.520063 0.08084 0.398548 -0.848668
2004-04-26 06:35:27 51°13.743 2°55.719 17.485545 0.08084 0.398554 -0.781249
2004-04-26 06:35:33 51°13.752 2°55.709 17.450969 0.08084 0.398548 -0.814958
2004-04-26 06:35:38 51°13.759 2°55.701 17.41016 0.08084 0.398548 -0.814958
2004-04-26 06:35:43 51°13.767 2°55.692 17.41142 0.08084 0.398542 -0.848668
2004-04-26 06:35:47 51°13.774 2°55.685 17.41142 0.08084 0.398542 -0.848668
2004-04-26 06:35:53 51°13.784 2°55.674 17.405246 0.08084 0.398548 -0.781249
2004-04-26 06:35:58 51°13.792 2°55.665 17.35819 0.08084 0.398537 -0.848668
2004-04-26 06:36:03 51°13.801 2°55.657 17.335196 0.08084 0.398542 -0.814958
2004-04-26 06:36:07 51°13.809 2°55.65 17.322918 0.08084 0.398542 -0.814958
2004-04-26 06:36:13 51°13.82 2°55.641 17.327586 0.08084 0.398554 -0.781249
2004-04-26 06:36:18 51°13.829 2°55.633 17.340493 0.08084 0.398565 -0.814958
2004-04-26 06:36:25 51°13.843 2°55.623 17.355668 0.08084 0.398581 -0.814958
2004-04-26 06:36:29 51°13.851 2°55.617 17.355668 0.08084 0.398581 -0.814958
2004-04-26 06:36:35 51°13.862 2°55.607 17.36441 0.08084 0.398592 -0.814958
2004-04-26 06:36:39 51°13.871 2°55.603 17.376722 0.08084 0.398609 -0.781249
2004-04-26 06:36:43 51°13.88 2°55.597 17.40176 0.08084 0.398615 -0.848668
2004-04-26 06:36:49 51°13.892 2°55.589 17.416249 0.08084 0.39862 -0.814958
2004-04-26 06:36:53 51°13.901 2°55.583 17.416249 0.08084 0.39862 -0.814958
2004-04-26 06:36:59 51°13.913 2°55.575 17.421204 0.08084 0.398626 -0.848668
2004-04-26 06:37:04 51°13.924 2°55.568 17.42196 0.08084 0.39862 -0.814958
2004-04-26 06:37:09 51°13.934 2°55.56 17.439887 0.08084 0.39862 -0.848668
2004-04-26 06:37:14 51°13.945 2°55.553 17.445512 0.08084 0.39862 -0.814958
2004-04-26 06:37:19 51°13.956 2°55.545 17.450717 0.08084 0.398615 -0.814958
2004-04-26 06:37:25 51°13.968 2°55.536 17.45185 0.08084 0.39862 -0.814958
2004-04-26 06:37:29 51°13.977 2°55.53 17.45185 0.08084 0.39862 -0.814958
2004-04-26 06:37:34 51°13.987 2°55.522 17.440349 0.08084 0.398626 -0.848668
2004-04-26 06:37:39 51°13.998 2°55.515 17.446226 0.08084 0.398631 -0.781249
2004-04-26 06:37:43 51°14.007 2°55.508 17.448576 0.08084 0.398637 -0.814958
2004-04-26 06:37:49 51°14.019 2°55.499 17.450423 0.08084 0.398643 -0.814958
2004-04-26 06:37:54 51°14.03 2°55.491 17.450423 0.08084 0.398643 -0.814958
2004-04-26 06:37:59 51°14.041 2°55.483 17.447611 0.08084 0.398637 -0.814958
2004-04-26 06:38:04 51°14.052 2°55.475 17.448283 0.08084 0.398637 -0.814958
2004-04-26 06:38:09 51°14.062 2°55.467 17.449836 0.08084 0.398643 -0.848668
2004-04-26 06:38:14 51°14.073 2°55.459 17.449542 0.08084 0.398637 -0.814958
2004-04-26 06:38:19 51°14.084 2°55.451 17.452312 0.08084 0.398637 -0.814958
2004-04-26 06:38:24 51°14.095 2°55.443 17.452312 0.08084 0.398637 -0.814958
2004-04-26 06:38:29 51°14.106 2°55.434 17.454159 0.08084 0.398637 -0.814958
2004-04-26 06:38:34 51°14.118 2°55.425 17.488104 0.08084 0.398637 -0.814958
2004-04-26 06:38:39 51°14.13 2°55.416 17.487853 0.08084 0.398631 -0.814958
2004-04-26 06:38:43 51°14.14 2°55.407 17.504337 0.08084 0.398643 -0.814958
2004-04-26 06:38:48 51°14.153 2°55.396 17.466665 0.08084 0.398637 -0.814958
2004-04-26 06:38:54 51°14.168 2°55.382 17.466665 0.08084 0.398637 -0.814958
2004-04-26 06:38:59 51°14.182 2°55.369 17.471742 0.08084 0.398643 -0.848668
2004-04-26 06:39:05 51°14.197 2°55.352 17.478329 0.08084 0.398648 -0.781249
2004-04-26 06:39:09 51°14.208 2°55.34 17.474805 0.08084 0.398654 -0.848668
2004-04-26 06:39:13 51°14.219 2°55.328 17.470777 0.08084 0.398659 -0.848668
2004-04-26 06:39:19 51°14.234 2°55.307 17.464483 0.08084 0.398665 -0.781249
2004-04-26 06:39:24 51°14.247 2°55.29 17.464483 0.08084 0.398665 -0.781249
2004-04-26 06:39:29 51°14.26 2°55.271 17.409992 0.08084 0.398665 -0.814958
2004-04-26 06:39:34 51°14.272 2°55.252 17.410202 0.08084 0.398665 -0.814958
2004-04-26 06:39:39 51°14.285 2°55.231 17.422548 0.08084 0.398665 -0.848668
2004-04-26 06:39:43 51°14.294 2°55.215 17.409992 0.08084 0.398659 -0.814958
2004-04-26 06:39:49 51°14.308 2°55.188 17.392603 0.08084 0.398665 -0.848668
2004-04-26 06:39:53 51°14.317 2°55.17 17.363359 0.08084 0.398665 -0.848668
2004-04-26 06:39:59 51°14.331 2°55.144 17.363359 0.08084 0.398665 -0.848668
2004-04-26 06:40:03 51°14.34 2°55.126 17.306643 0.08084 0.398665 -0.814958
2004-04-26 06:40:09 51°14.355 2°55.099 17.312994 0.08084 0.398659 -0.814958
2004-04-26 06:40:14 51°14.366 2°55.076 17.367225 0.08084 0.39867 -0.848668
2004-04-26 06:40:19 51°14.377 2°55.052 17.3431 0.08084 0.398676 -0.814958
2004-04-26 06:40:25 51°14.391 2°55.023 17.355794 0.08084 0.398676 -0.814958
2004-04-26 06:40:29 51°14.401 2°55.005 17.355794 0.08084 0.398676 -0.814958
2004-04-26 06:40:34 51°14.413 2°54.982 17.292299 0.08084 0.398676 -0.814958
2004-04-26 06:40:39 51°14.427 2°54.959 17.228998 0.08084 0.39867 -0.814958
2004-04-26 06:40:44 51°14.441 2°54.938 17.249165 0.08084 0.398676 -0.814958
2004-04-26 06:40:49 51°14.454 2°54.917 17.346463 0.08084 0.398676 -0.848668
2004-04-26 06:40:54 51°14.469 2°54.895 17.392393 0.08084 0.398676 -0.814958
2004-04-26 06:40:59 51°14.483 2°54.874 17.392393 0.08084 0.398676 -0.814958
2004-04-26 06:41:05 51°14.5 2°54.849 17.373192 0.08084 0.398682 -0.848668
2004-04-26 06:41:09 51°14.512 2°54.833 17.386511 0.08084 0.398687 -0.848668
2004-04-26 06:41:14 51°14.526 2°54.812 17.394493 0.08084 0.398693 -0.814958
2004-04-26 06:41:19 51°14.541 2°54.792 17.403356 0.08084 0.398698 -0.814958
2004-04-26 06:41:24 51°14.556 2°54.771 17.403356 0.08084 0.398698 -0.814958
2004-04-26 06:41:29 51°14.57 2°54.751 17.419314 0.08084 0.398698 -0.814958
2004-04-26 06:41:33 51°14.582 2°54.734 17.412385 0.08084 0.398698 -0.848668
2004-04-26 06:41:39 51°14.599 2°54.709 17.40869 0.08084 0.398704 -0.814958
2004-04-26 06:41:45 51°14.617 2°54.685 16.487841 0.080737 0.403083 4.241452
2004-04-26 06:41:49 51°14.629 2°54.669 14.482333 0.585471 3.215399 3.80323
2004-04-26 06:41:54 51°14.644 2°54.65 14.482333 0.585471 3.215399 3.80323
2004-04-26 06:41:59 51°14.659 2°54.631 13.466564 0.31451 1.665729 12.331708
2004-04-26 06:42:03 51°14.672 2°54.617 12.899931 1.767336 11.179202 14.387982
2004-04-26 06:42:09 51°14.691 2°54.595 12.597354 2.707422 19.00923 10.443982
2004-04-26 06:42:13 51°14.703 2°54.581 12.340665 3.070937 22.70345 13.612665
2004-04-26 06:42:18 51°14.72 2°54.563 12.148245 3.841326 30.028586 34.883298
2004-04-26 06:42:24 51°14.739 2°54.542 12.148245 3.841326 30.028586 34.883298
2004-04-26 06:42:29 51°14.754 2°54.524 12.06903 3.981437 32.353468 68.323024
2004-04-26 06:42:37 51°14.78 2°54.495 11.909813 3.903024 32.744552 68.120768
2004-04-26 06:42:43 51°14.799 2°54.474 11.866428 3.875728 32.845543 68.120768
2004-04-26 06:42:49 51°14.818 2°54.453 11.822831 3.858338 32.875949 68.120768
2004-04-26 06:42:54 51°14.835 2°54.435 11.823652 3.84411 32.867372 68.188187
2004-04-26 06:42:59 51°14.851 2°54.418 11.823652 3.84411 32.867372 68.188187
2004-04-26 06:43:04 51°14.867 2°54.401 11.829947 3.829883 32.858871 68.154477
2004-04-26 06:43:09 51°14.883 2°54.383 11.788746 3.799423 32.659958 68.188187
2004-04-26 06:43:13 51°14.896 2°54.369 11.787787 3.798159 32.717709 68.154477
2004-04-26 06:43:19 51°14.915 2°54.348 11.802163 3.807014 32.861953 68.188187
2004-04-26 06:43:25 51°14.934 2°54.327 11.782721 3.796685 32.795088 68.188187
2004-04-26 06:43:29 51°14.947 2°54.313 11.782721 3.796685 32.795088 68.188187
2004-04-26 06:43:34 51°14.964 2°54.297 11.758616 3.790045 32.748461 68.154477
2004-04-26 06:43:39 51°14.98 2°54.28 11.75478 3.783089 32.708411 68.188187
2004-04-26 06:43:43 51°14.993 2°54.267 11.757474 3.777293 32.680172 68.154477
2004-04-26 06:43:49 51°15.012 2°54.247 11.743682 3.77255 32.646204 68.154477
2004-04-26 06:43:53 51°15.025 2°54.233 11.734227 3.767703 32.61327 68.120768
2004-04-26 06:43:58 51°15.04 2°54.216 11.734227 3.767703 32.61327 68.120768
2004-04-26 06:44:04 51°15.059 2°54.194 11.704301 3.768757 32.647558 68.154477
2004-04-26 06:44:09 51°15.075 2°54.176 11.697674 3.758323 32.556592 68.154477
2004-04-26 06:44:19 51°15.105 2°54.139 11.657213 3.753054 32.520226 68.120768
2004-04-26 06:44:24 51°15.121 2°54.12 11.6391 3.750735 32.510931 68.120768
2004-04-26 06:44:29 51°15.136 2°54.102 11.6391 3.750735 32.510931 68.120768
2004-04-26 06:44:34 51°15.152 2°54.084 11.63265 3.768336 32.693941 68.154477
2004-04-26 06:44:39 51°15.168 2°54.066 11.597276 3.759167 32.625429 68.188187
2004-04-26 06:44:44 51°15.184 2°54.049 11.592699 3.726918 32.336693 68.188187
2004-04-26 06:44:49 51°15.199 2°54.031 11.582902 3.793316 32.996125 68.188187
2004-04-26 06:44:53 51°15.212 2°54.017 11.582902 3.793316 32.996125 68.188187
2004-04-26 06:44:59 51°15.231 2°53.995 11.575713 3.804488 33.119136 68.188187
2004-04-26 06:45:05 51°15.249 2°53.973 11.572279 3.801326 33.10746 68.221896
2004-04-26 06:45:09 51°15.262 2°53.958 11.57727 3.796584 33.079027 68.289315
2004-04-26 06:45:14 51°15.277 2°53.94 11.563166 3.790471 33.030248 68.255606
2004-04-26 06:45:19 51°15.293 2°53.922 11.535956 3.785201 32.993146 68.289315
2004-04-26 06:45:25 51°15.312 2°53.9 11.535956 3.785201 32.993146 68.289315
2004-04-26 06:45:29 51°15.324 2°53.886 11.545989 3.780985 32.961346 68.255606
2004-04-26 06:45:33 51°15.337 2°53.872 11.526655 3.776453 32.923663 68.255606
2004-04-26 06:45:39 51°15.356 2°53.85 11.528671 3.770868 32.874344 68.255606
2004-04-26 06:45:45 51°15.375 2°53.828 11.519552 3.748314 32.664569 68.188187
2004-04-26 06:45:49 51°15.387 2°53.814 11.536689 3.762963 32.822089 68.188187
2004-04-26 06:45:53 51°15.399 2°53.799 11.536689 3.762963 32.822089 68.188187
2004-04-26 06:45:58 51°15.415 2°53.781 11.520744 3.759275 32.791861 68.188187
2004-04-26 06:46:03 51°15.43 2°53.763 11.514969 3.756113 32.770239 68.221896
2004-04-26 06:46:09 51°15.449 2°53.741 11.522027 3.752846 32.743396 68.154477
2004-04-26 06:46:14 51°15.465 2°53.723 11.521614 3.750949 32.732649 68.188187
2004-04-26 06:46:19 51°15.481 2°53.705 11.517536 3.751265 32.735022 68.154477
2004-04-26 06:46:24 51°15.497 2°53.687 11.517536 3.751265 32.735022 68.154477
2004-04-26 06:46:29 51°15.513 2°53.67 11.515244 3.750844 32.732323 68.188187
2004-04-26 06:46:34 51°15.529 2°53.652 11.523722 3.742518 32.655639 68.188187
2004-04-26 06:46:39 51°15.545 2°53.635 11.505436 3.741464 32.647493 68.188187
2004-04-26 06:46:45 51°15.564 2°53.615 11.492279 3.735351 32.586051 68.154477
2004-04-26 06:46:49 51°15.577 2°53.601 11.50869 3.751265 32.748291 68.188187
2004-04-26 06:46:54 51°15.594 2°53.584 11.49315 3.752003 32.758256 68.188187
2004-04-26 06:46:59 51°15.61 2°53.567 11.49315 3.752003 32.758256 68.188187
2004-04-26 06:47:03 51°15.623 2°53.553 11.482696 3.752214 32.763101 68.188187
2004-04-26 06:47:09 51°15.642 2°53.533 11.498055 3.753057 32.776891 68.154477
2004-04-26 06:47:13 51°15.656 2°53.519 11.496313 3.753479 32.787288 68.120768
2004-04-26 06:47:19 51°15.675 2°53.498 11.494617 3.752003 32.77434 68.154477
2004-04-26 06:47:25 51°15.695 2°53.478 11.49888 3.750317 32.767038 68.188187
2004-04-26 06:47:29 51°15.708 2°53.465 11.49888 3.750317 32.767038 68.188187
2004-04-26 06:47:34 51°15.724 2°53.447 11.497322 3.745153 32.719614 68.188187
2004-04-26 06:47:39 51°15.74 2°53.43 11.486502 3.747682 32.743512 68.154477
2004-04-26 06:47:45 51°15.76 2°53.41 11.490537 3.744732 32.715514 68.188187
2004-04-26 06:47:49 51°15.773 2°53.397 11.495259 3.745258 32.719241 68.188187
2004-04-26 06:47:53 51°15.786 2°53.385 11.493975 3.746945 32.739834 68.154477
2004-04-26 06:47:59 51°15.807 2°53.366 11.493975 3.746945 32.739834 68.154477
2004-04-26 06:48:03 51°15.82 2°53.354 11.47435 3.751266 32.780464 68.188187
2004-04-26 06:48:09 51°15.84 2°53.336 11.469168 3.749685 32.769286 68.154477
2004-04-26 06:48:14 51°15.858 2°53.322 11.451279 3.750844 32.782665 68.221896
2004-04-26 06:48:19 51°15.875 2°53.307 11.443709 3.75116 32.78434 68.154477
2004-04-26 06:48:25 51°15.896 2°53.291 11.443709 3.75116 32.78434 68.154477
2004-04-26 06:48:30 51°15.914 2°53.277 11.441461 3.750634 32.780614 68.154477
2004-04-26 06:48:33 51°15.924 2°53.269 11.427374 3.75232 32.805431 68.154477
2004-04-26 06:48:38 51°15.942 2°53.256 11.426502 3.751793 32.808716 68.188187
2004-04-26 06:48:44 51°15.963 2°53.24 11.422188 3.752215 32.82545 68.154477
2004-04-26 06:48:49 51°15.981 2°53.227 11.415624 3.752109 32.830041 68.154477
2004-04-26 06:48:53 51°15.995 2°53.216 11.417552 3.751372 32.83339 68.154477
2004-04-26 06:48:59 51°16.016 2°53.2 11.417552 3.751372 32.83339 68.154477
2004-04-26 06:49:03 51°16.03 2°53.19 11.41388 3.752004 32.843768 68.188187
2004-04-26 06:49:09 51°16.051 2°53.174 11.415532 3.751688 32.850529 68.154477
2004-04-26 06:49:14 51°16.068 2°53.16 11.413421 3.751372 32.850964 68.154477
2004-04-26 06:49:19 51°16.085 2°53.146 11.411447 3.751161 32.851723 68.154477
2004-04-26 06:49:24 51°16.103 2°53.133 11.40727 3.751056 32.854916 68.154477
2004-04-26 06:49:29 51°16.12 2°53.12 11.40727 3.751056 32.854916 68.154477
2004-04-26 06:49:34 51°16.138 2°53.107 11.40346 3.750424 32.850861 68.188187
2004-04-26 06:49:39 51°16.155 2°53.093 11.400246 3.751688 32.865305 68.120768
2004-04-26 06:49:43 51°16.169 2°53.082 11.393543 3.751267 32.863306 68.188187
2004-04-26 06:49:49 51°16.19 2°53.066 11.380915 3.751794 32.871261 68.154477
2004-04-26 06:49:54 51°16.207 2°53.052 11.380915 3.751794 32.871261 68.154477
2004-04-26 06:49:59 51°16.225 2°53.039 11.375495 3.751794 32.873374 68.154477
2004-04-26 06:50:04 51°16.242 2°53.025 11.362818 3.751372 32.872079 68.154477
2004-04-26 06:50:09 51°16.26 2°53.012 11.359648 3.751689 32.87939 68.120768
2004-04-26 06:50:13 51°16.274 2°53.001 11.354319 3.75074 32.878592 68.188187
2004-04-26 06:50:19 51°16.295 2°52.984 11.358408 3.749581 32.875031 68.188187
2004-04-26 06:50:25 51°16.316 2°52.968 11.358408 3.749581 32.875031 68.188187
2004-04-26 06:50:29 51°16.33 2°52.957 11.347657 3.748527 32.873203 68.154477
2004-04-26 06:50:34 51°16.348 2°52.943 11.348668 3.747895 32.87267 68.188187
2004-04-26 06:50:39 51°16.366 2°52.93 11.34853 3.746947 32.868345 68.154477
2004-04-26 06:50:44 51°16.384 2°52.916 11.338283 3.746209 32.868194 68.221896
2004-04-26 06:50:48 51°16.398 2°52.906 11.346968 3.745366 32.86278 68.154477
2004-04-26 06:50:53 51°16.416 2°52.893 11.341821 3.744944 32.862189 68.188187
2004-04-26 06:50:59 51°16.437 2°52.877 11.341821 3.744944 32.862189 68.188187
2004-04-26 06:51:05 51°16.458 2°52.86 11.336858 3.744944 32.860779 68.188187
2004-04-26 06:51:09 51°16.472 2°52.85 11.340443 3.744101 32.858186 68.221896
2004-04-26 06:51:14 51°16.489 2°52.836 11.341959 3.743574 32.853743 68.188187
2004-04-26 06:51:19 51°16.507 2°52.823 11.337502 3.743258 32.852065 68.188187
2004-04-26 06:51:25 51°16.528 2°52.806 11.338926 3.742942 32.850387 68.188187
2004-04-26 06:51:29 51°16.542 2°52.796 11.338926 3.742942 32.850387 68.188187
2004-04-26 06:51:34 51°16.559 2°52.782 11.333963 3.741467 32.838088 68.221896
2004-04-26 06:51:39 51°16.577 2°52.769 11.341684 3.740096 32.826818 68.188187
2004-04-26 06:51:43 51°16.591 2°52.758 11.335112 3.739886 32.822645 68.188187
2004-04-26 06:51:49 51°16.612 2°52.742 11.338743 3.737567 32.804222 68.221896
2004-04-26 06:51:53 51°16.627 2°52.732 11.335939 3.737356 32.801459 68.221896
2004-04-26 06:51:59 51°16.648 2°52.716 11.335939 3.737356 32.801459 68.221896
2004-04-26 06:52:04 51°16.666 2°52.703 11.339754 3.736829 32.799128 68.188187
2004-04-26 06:52:09 51°16.683 2°52.689 11.34513 3.736513 32.794631 68.221896
2004-04-26 06:52:14 51°16.701 2°52.676 11.343338 3.736513 32.795335 68.221896
2004-04-26 06:52:19 51°16.719 2°52.663 11.342281 3.736303 32.795389 68.221896
2004-04-26 06:52:25 51°16.74 2°52.647 11.348989 3.735986 32.793005 68.255606
2004-04-26 06:52:29 51°16.755 2°52.636 11.348989 3.735986 32.793005 68.255606
2004-04-26 06:52:34 51°16.773 2°52.623 11.348989 3.73567 32.787099 68.221896
2004-04-26 06:52:39 51°16.79 2°52.61 11.352573 3.735881 32.78775 68.289315
2004-04-26 06:52:41 51°16.797 2°52.604 11.353997 3.736092 32.789809 68.221896
2004-04-26 06:52:49 51°16.825 2°52.583 11.355514 3.736302 32.793276 68.221896
2004-04-26 06:52:54 51°16.843 2°52.57 11.355514 3.736302 32.793276 68.221896
2004-04-26 06:52:58 51°16.857 2°52.559 11.354089 3.736724 32.794577 68.221896
2004-04-26 06:53:03 51°16.875 2°52.546 11.357259 3.737672 32.80173 68.221896
2004-04-26 06:53:09 51°16.896 2°52.53 11.357397 3.737672 32.798913 68.221896
2004-04-26 06:53:13 51°16.91 2°52.519 11.354824 3.738199 32.80406 68.255606
2004-04-26 06:53:19 51°16.931 2°52.502 11.354089 3.738305 32.80368 68.221896
2004-04-26 06:53:25 51°16.952 2°52.486 11.354089 3.738305 32.80368 68.221896
2004-04-26 06:53:29 51°16.966 2°52.475 11.341775 3.738832 32.808827 68.221896
2004-04-26 06:53:34 51°16.984 2°52.462 11.341638 3.738621 32.80536 68.255606
2004-04-26 06:53:39 51°17.001 2°52.449 11.329781 3.739991 32.818741 68.221896
2004-04-26 06:53:45 51°17.022 2°52.433 11.319163 3.740623 32.827737 68.255606
2004-04-26 06:53:49 51°17.036 2°52.422 11.309234 3.741467 32.838088 68.188187
2004-04-26 06:53:54 51°17.054 2°52.408 11.302889 3.741361 32.840585 68.255606
2004-04-26 06:53:59 51°17.071 2°52.394 11.302889 3.741361 32.840585 68.255606
2004-04-26 06:54:05 51°17.093 2°52.378 11.290382 3.741045 32.844549 68.255606
2004-04-26 06:54:09 51°17.107 2°52.367 11.279528 3.740413 32.844013 68.255606
2004-04-26 06:54:13 51°17.121 2°52.356 11.269592 3.739254 32.841855 68.221896
2004-04-26 06:54:19 51°17.142 2°52.34 11.259287 3.737778 32.835194 68.221896
2004-04-26 06:54:25 51°17.163 2°52.323 11.244608 3.735987 32.826144 68.188187
2004-04-26 06:54:29 51°17.177 2°52.312 11.244608 3.735987 32.826144 68.188187
2004-04-26 06:54:33 51°17.191 2°52.301 11.23927 3.733563 32.809494 68.221896
2004-04-26 06:54:39 51°17.213 2°52.284 11.225645 3.731139 32.794251 68.188187
2004-04-26 06:54:45 51°17.233 2°52.267 11.212755 3.727345 32.765599 68.221896
2004-04-26 06:54:49 51°17.247 2°52.256 11.208933 3.700683 32.51329 68.221896
2004-04-26 06:54:54 51°17.265 2°52.242 11.214505 3.69573 32.472568 68.188187
2004-04-26 06:54:59 51°17.283 2°52.228 11.214505 3.69573 32.472568 68.188187
2004-04-26 06:55:03 51°17.297 2°52.217 11.1965 3.69025 32.431576 68.221896
2004-04-26 06:55:09 51°17.318 2°52.2 11.192816 3.709008 32.626288 68.221896
2004-04-26 06:55:13 51°17.332 2°52.19 11.175819 3.704793 32.589947 68.221896
2004-04-26 06:55:19 51°17.354 2°52.173 11.168125 3.701316 32.563631 68.188187
2004-04-26 06:55:25 51°17.375 2°52.156 11.15739 3.698997 32.544446 68.221896
2004-04-26 06:55:29 51°17.39 2°52.145 11.15739 3.698997 32.544446 68.221896
2004-04-26 06:55:33 51°17.404 2°52.134 11.149417 3.695941 32.520842 68.188187
2004-04-26 06:55:39 51°17.424 2°52.116 11.139324 3.693834 32.510727 68.188187
2004-04-26 06:55:44 51°17.441 2°52.099 11.130197 3.691726 32.498503 68.221896
2004-04-26 06:55:49 51°17.458 2°52.082 11.132179 3.689618 32.487677 68.221896
2004-04-26 06:55:53 51°17.471 2°52.067 11.132087 3.688459 32.485438 68.221896
2004-04-26 06:55:59 51°17.489 2°52.044 11.132087 3.688459 32.485438 68.221896
2004-04-26 06:56:05 51°17.506 2°52.019 11.127707 3.68593 32.470475 68.154477
2004-04-26 06:56:09 51°17.517 2°52.001 11.127984 3.685825 32.476457 68.154477
2004-04-26 06:56:12 51°17.525 2°51.987 11.1337 3.684666 32.470005 68.154477
2004-04-26 06:56:19 51°17.543 2°51.954 11.136143 3.684561 32.473182 68.188187
2004-04-26 06:56:25 51°17.558 2°51.925 11.133746 3.68435 32.473221 68.188187
2004-04-26 06:56:29 51°17.568 2°51.906 11.133746 3.68435 32.473221 68.188187
2004-04-26 06:56:33 51°17.578 2°51.886 11.135221 3.683401 32.467431 68.188187
2004-04-26 06:56:39 51°17.593 2°51.857 11.136927 3.684455 32.477764 68.188187
2004-04-26 06:56:43 51°17.602 2°51.837 11.136281 3.685614 32.489131 68.221896
2004-04-26 06:56:49 51°17.617 2°51.807 11.135959 3.686352 32.495663 68.188187
2004-04-26 06:56:52 51°17.624 2°51.793 11.135959 3.686352 32.495663 68.188187
2004-04-26 06:56:58 51°17.639 2°51.763 11.14232 3.687406 32.505294 68.188187
2004-04-26 06:57:02 51°17.649 2°51.744 11.148634 3.689092 32.519721 68.154477
2004-04-26 06:57:08 51°17.664 2°51.715 11.15292 3.689619 32.525592 68.221896
2004-04-26 06:57:12 51°17.673 2°51.695 11.163564 3.69141 32.542458 68.188187
2004-04-26 06:57:18 51°17.688 2°51.666 11.16854 3.69394 32.566561 68.188187
2004-04-26 06:57:22 51°17.698 2°51.647 11.16854 3.69394 32.566561 68.188187
2004-04-26 06:57:29 51°17.715 2°51.612 11.172042 3.697207 32.595084 68.154477
2004-04-26 06:57:33 51°17.724 2°51.593 11.177247 3.701 32.628774 68.221896
2004-04-26 06:57:38 51°17.737 2°51.568 11.177432 3.705426 32.666548 68.188187
2004-04-26 06:57:44 51°17.752 2°51.54 11.178491 3.710696 32.714002 68.221896
2004-04-26 06:57:48 51°17.762 2°51.52 11.175681 3.715859 32.759713 68.221896
2004-04-26 06:57:52 51°17.772 2°51.501 11.169784 3.721656 32.813752 68.188187
2004-04-26 06:57:58 51°17.786 2°51.471 11.169784 3.721656 32.813752 68.188187
2004-04-26 06:58:02 51°17.796 2°51.452 11.169139 3.726293 32.855001 68.221896
2004-04-26 06:58:08 51°17.811 2°51.423 11.166881 3.730192 32.891139 68.221896
2004-04-26 06:58:12 51°17.821 2°51.403 11.167527 3.734513 32.93355 68.221896
2004-04-26 06:58:18 51°17.835 2°51.374 11.16877 3.738096 32.969438 68.255606
2004-04-26 06:58:24 51°17.85 2°51.345 11.163426 3.743155 33.021248 68.221896
2004-04-26 06:58:28 51°17.86 2°51.325 11.163426 3.743155 33.021248 68.221896
2004-04-26 06:58:32 51°17.87 2°51.305 11.157758 3.746001 33.05205 68.188187
2004-04-26 06:58:38 51°17.885 2°51.276 11.157113 3.749689 33.089715 68.255606
2004-04-26 06:58:42 51°17.895 2°51.257 11.155316 3.75243 33.117353 68.255606
2004-04-26 06:58:48 51°17.91 2°51.228 11.147343 3.754959 33.142208 68.255606
2004-04-26 06:58:53 51°17.923 2°51.204 11.144348 3.75654 33.16061 68.221896
2004-04-26 06:58:58 51°17.935 2°51.179 11.144348 3.75654 33.16061 68.221896
2004-04-26 06:59:04 51°17.95 2°51.15 11.14043 3.757805 33.175907 68.255606
2004-04-26 06:59:08 51°17.96 2°51.13 11.133516 3.75928 33.193281 68.255606
2004-04-26 06:59:13 51°17.972 2°51.105 11.128767 3.760123 33.203005 68.255606
2004-04-26 06:59:18 51°17.984 2°51.081 11.130565 3.760861 33.214566 68.255606
2004-04-26 06:59:21 51°17.992 2°51.066 11.130565 3.760861 33.214566 68.255606
2004-04-26 06:59:28 51°18.009 2°51.032 11.12365 3.76065 33.2168 68.255606
2004-04-26 06:59:33 51°18.022 2°51.008 11.122636 3.760756 33.222864 68.255606
2004-04-26 06:59:38 51°18.034 2°50.983 11.118855 3.760967 33.229248 68.255606
2004-04-26 06:59:41 51°18.042 2°50.968 11.117841 3.760967 33.234278 68.289315
2004-04-26 06:59:48 51°18.058 2°50.933 11.107466 3.761283 33.23739 68.255606
2004-04-26 06:59:52 51°18.067 2°50.912 11.105483 3.757173 33.198385 68.289315
2004-04-26 06:59:58 51°18.08 2°50.881 11.105483 3.757173 33.198385 68.289315
2004-04-26 07:00:02 51°18.088 2°50.859 11.101793 3.75517 33.183709 68.255606
2004-04-26 07:00:08 51°18.1 2°50.827 11.101563 3.759808 33.231496 68.255606
2004-04-26 07:00:13 51°18.11 2°50.801 11.096904 3.758121 33.22065 68.289315
2004-04-26 07:00:17 51°18.118 2°50.779 11.095797 3.757384 33.21842 68.289315
2004-04-26 07:00:22 51°18.128 2°50.752 11.095797 3.757384 33.21842 68.289315
2004-04-26 07:00:28 51°18.14 2°50.72 11.09589 3.755276 33.201264 68.289315
2004-04-26 07:00:33 51°18.15 2°50.693 11.100133 3.754854 33.19927 68.289315
2004-04-26 07:00:42 51°18.168 2°50.644 11.100871 3.750639 33.162797 68.255606
2004-04-26 07:00:47 51°18.178 2°50.617 11.100871 3.750639 33.162797 68.255606
2004-04-26 07:00:53 51°18.19 2°50.585 11.101055 3.750744 33.164553 68.289315
2004-04-26 07:00:58 51°18.2 2°50.558 11.097319 3.75106 33.169101 68.323024
2004-04-26 07:01:03 51°18.21 2°50.531 11.096535 3.750217 33.160801 68.289315
2004-04-26 07:01:08 51°18.22 2°50.504 11.096259 3.751798 33.176365 68.289315
2004-04-26 07:01:13 51°18.23 2°50.478 11.094829 3.750112 33.158327 68.323024
2004-04-26 07:01:18 51°18.241 2°50.451 11.094829 3.750112 33.158327 68.323024
2004-04-26 07:01:22 51°18.249 2°50.43 11.093214 3.749585 33.152422 68.356734
2004-04-26 07:01:29 51°18.263 2°50.392 11.087587 3.749901 33.15697 68.356734
2004-04-26 07:01:33 51°18.271 2°50.371 11.081128 3.750217 33.160083 68.323024
2004-04-26 07:01:38 51°18.281 2°50.344 11.075223 3.749585 33.153858 68.289315
2004-04-26 07:01:43 51°18.291 2°50.317 11.066364 3.748636 33.147391 68.356734
2004-04-26 07:01:47 51°18.299 2°50.296 11.066364 3.748636 33.147391 68.356734
2004-04-26 07:01:52 51°18.309 2°50.269 11.059303 3.746845 33.131188 68.289315
2004-04-26 07:01:58 51°18.321 2°50.237 11.054781 3.746845 33.136928 68.323024
2004-04-26 07:02:03 51°18.331 2°50.211 11.037933 3.744842 33.122234 68.289315
2004-04-26 07:02:09 51°18.342 2°50.179 11.031839 3.742208 33.099876 68.289315
2004-04-26 07:02:13 51°18.35 2°50.157 11.02773 3.740627 33.092913 68.289315
2004-04-26 07:02:18 51°18.36 2°50.13 11.018218 3.738519 33.078606 68.323024
2004-04-26 07:02:23 51°18.37 2°50.104 11.018218 3.738519 33.078606 68.323024
2004-04-26 07:02:27 51°18.378 2°50.083 11.015447 3.734725 33.044819 68.289315
2004-04-26 07:02:33 51°18.39 2°50.051 11.014985 3.731564 33.021555 68.289315
2004-04-26 07:02:37 51°18.399 2°50.029 11.001268 3.728824 33.001005 68.255606
2004-04-26 07:02:43 51°18.411 2°49.997 10.996603 3.726611 32.986358 68.255606
2004-04-26 07:02:47 51°18.419 2°49.976 10.99397 3.723344 32.957746 68.221896
2004-04-26 07:02:53 51°18.431 2°49.944 10.99397 3.723344 32.957746 68.221896
2004-04-26 07:02:58 51°18.442 2°49.917 10.986301 3.721131 32.942375 68.221896
2004-04-26 07:03:03 51°18.452 2°49.89 10.981404 3.718707 32.92278 68.188187
2004-04-26 07:03:07 51°18.46 2°49.869 10.978354 3.716915 32.910841 68.255606
2004-04-26 07:03:13 51°18.473 2°49.837 10.973318 3.715124 32.899614 68.221896
2004-04-26 07:03:23 51°18.493 2°49.784 10.967218 3.714175 32.893123 68.221896
2004-04-26 07:03:27 51°18.501 2°49.763 10.961025 3.712911 32.886371 68.188187
2004-04-26 07:03:33 51°18.513 2°49.73 10.957096 3.710908 32.872346 68.154477
2004-04-26 07:03:38 51°18.523 2°49.703 10.950347 3.710487 32.873902 68.221896
2004-04-26 07:03:43 51°18.533 2°49.676 10.935045 3.704269 32.816884 68.154477
2004-04-26 07:03:47 51°18.541 2°49.655 10.92834 3.708801 32.862989 68.188187
2004-04-26 07:03:53 51°18.553 2°49.623 10.92834 3.708801 32.862989 68.188187
2004-04-26 07:03:58 51°18.563 2°49.596 10.919739 3.706904 32.852851 68.188187
2004-04-26 07:04:02 51°18.571 2°49.575 10.913264 3.70585 32.846027 68.154477
2004-04-26 07:04:07 51°18.582 2°49.548 10.907436 3.704586 32.839979 68.154477
2004-04-26 07:04:13 51°18.594 2°49.516 10.886803 3.7029 32.831199 68.120768
2004-04-26 07:04:18 51°18.604 2°49.489 10.870236 3.70153 32.826249 68.188187
2004-04-26 07:04:23 51°18.614 2°49.463 10.870236 3.70153 32.826249 68.188187
2004-04-26 07:04:27 51°18.623 2°49.441 10.866348 3.700687 32.826499 68.154477
2004-04-26 07:04:33 51°18.635 2°49.409 10.863108 3.695629 32.782282 68.188187
2004-04-26 07:04:38 51°18.645 2°49.382 10.851766 3.698052 32.814063 68.154477
2004-04-26 07:04:43 51°18.655 2°49.355 10.845239 3.69605 32.805721 68.120768
2004-04-26 07:04:48 51°18.666 2°49.329 10.835469 3.695102 32.809216 68.154477
2004-04-26 07:04:53 51°18.676 2°49.302 10.835469 3.695102 32.809216 68.154477
2004-04-26 07:04:57 51°18.684 2°49.281 10.839173 3.694154 32.806994 68.154477
2004-04-26 07:05:03 51°18.696 2°49.249 10.840238 3.69173 32.787332 68.188187
2004-04-26 07:05:09 51°18.709 2°49.216 10.837089 3.692784 32.804896 68.154477
2004-04-26 07:05:13 51°18.717 2°49.195 10.833153 3.691203 32.799284 68.120768
2004-04-26 07:05:17 51°18.726 2°49.173 10.833153 3.691203 32.799284 68.120768
2004-04-26 07:05:22 51°18.736 2°49.146 10.817268 3.690149 32.794587 68.120768
2004-04-26 07:05:27 51°18.746 2°49.119 10.806057 3.689728 32.794711 68.120768
2004-04-26 07:05:33 51°18.759 2°49.087 10.79656 3.689939 32.795364 68.120768
2004-04-26 07:05:38 51°18.769 2°49.06 10.788821 3.690466 32.802722 68.188187
2004-04-26 07:05:43 51°18.779 2°49.033 10.789609 3.692047 32.824801 68.154477
2004-04-26 07:05:47 51°18.787 2°49.011 10.789609 3.692047 32.824801 68.154477
2004-04-26 07:05:53 51°18.8 2°48.979 10.778162 3.685724 32.768697 68.154477
2004-04-26 07:05:58 51°18.81 2°48.952 10.760177 3.686883 32.788751 68.120768
2004-04-26 07:06:03 51°18.821 2°48.925 10.744135 3.687305 32.8008 68.120768
2004-04-26 07:06:09 51°18.833 2°48.893 10.725676 3.690993 32.845917 68.154477
2004-04-26 07:06:13 51°18.841 2°48.872 10.707074 3.690677 32.847092 68.120768
2004-04-26 07:06:17 51°18.85 2°48.85 10.695705 3.691099 32.85701 68.154477
2004-04-26 07:06:23 51°18.862 2°48.818 10.695705 3.691099 32.85701 68.154477
2004-04-26 07:06:27 51°18.871 2°48.796 10.681179 3.689307 32.855781 68.154477
2004-04-26 07:06:33 51°18.883 2°48.764 10.670967 3.688781 32.862776 68.154477
2004-04-26 07:06:43 51°18.904 2°48.71 10.657549 3.687832 32.878549 68.120768
2004-04-26 07:06:47 51°18.912 2°48.689 10.665024 3.68699 32.886027 68.120768
2004-04-26 07:06:53 51°18.925 2°48.657 10.665024 3.68699 32.886027 68.120768
2004-04-26 07:06:57 51°18.933 2°48.635 10.654345 3.685409 32.881145 68.120768
2004-04-26 07:07:03 51°18.946 2°48.603 10.651513 3.684777 32.884237 68.120768
2004-04-26 07:07:07 51°18.954 2°48.582 10.648866 3.681089 32.854098 68.154477
2004-04-26 07:07:13 51°18.967 2°48.55 10.645151 3.683723 32.884586 68.154477
2004-04-26 07:07:18 51°18.977 2°48.523 10.640692 3.68288 32.881982 68.120768
2004-04-26 07:07:23 51°18.987 2°48.497 10.640692 3.68288 32.881982 68.120768
2004-04-26 07:07:28 51°18.998 2°48.47 10.636094 3.681405 32.87021 68.154477
2004-04-26 07:07:33 51°19.009 2°48.444 10.633725 3.681932 32.879772 68.120768
2004-04-26 07:07:38 51°19.019 2°48.417 10.627501 3.68151 32.880634 68.154477
2004-04-26 07:07:42 51°19.027 2°48.396 10.616583 3.681089 32.877888 68.120768
2004-04-26 07:07:49 51°19.042 2°48.358 10.613005 3.680457 32.873769 68.188187
2004-04-26 07:07:51 51°19.046 2°48.347 10.613005 3.680457 32.873769 68.188187
2004-04-26 07:07:58 51°19.061 2°48.31 10.603294 3.671815 32.79295 68.154477
2004-04-26 07:08:02 51°19.069 2°48.289 10.605803 3.677928 32.858011 68.154477
2004-04-26 07:08:09 51°19.084 2°48.251 10.600273 3.678349 32.86653 68.154477
2004-04-26 07:08:13 51°19.093 2°48.23 10.598739 3.673502 32.825553 68.120768
2004-04-26 07:08:18 51°19.103 2°48.203 10.598739 3.673502 32.825553 68.120768
2004-04-26 07:08:23 51°19.114 2°48.177 10.59293 3.674029 32.835118 68.120768
2004-04-26 07:08:29 51°19.126 2°48.144 10.593116 3.67561 32.85733 68.120768
2004-04-26 07:08:33 51°19.135 2°48.123 10.58805 3.669287 32.797338 68.188187
2004-04-26 07:08:38 51°19.145 2°48.096 10.587538 3.67424 32.850923 68.154477
2004-04-26 07:08:43 51°19.156 2°48.069 10.585679 3.6715 32.826556 68.154477
2004-04-26 07:08:47 51°19.164 2°48.047 10.585679 3.6715 32.826556 68.154477
2004-04-26 07:08:53 51°19.177 2°48.015 10.588793 3.670551 32.820729 68.120768
2004-04-26 07:08:58 51°19.187 2°47.988 10.586702 3.670762 32.824269 68.188187
2004-04-26 07:09:03 51°19.198 2°47.961 10.584424 3.669076 32.810381 68.120768
2004-04-26 07:09:07 51°19.206 2°47.94 10.583587 3.670552 32.827945 68.120768
2004-04-26 07:09:13 51°19.219 2°47.908 10.585121 3.669076 32.813266 68.120768
2004-04-26 07:09:18 51°19.23 2°47.881 10.585121 3.669076 32.813266 68.120768
2004-04-26 07:09:23 51°19.241 2°47.854 10.587213 3.664966 32.772382 68.188187
2004-04-26 07:09:26 51°19.247 2°47.838 10.590374 3.67013 32.825194 68.188187
2004-04-26 07:09:33 51°19.262 2°47.801 10.585121 3.664861 32.774937 68.154477
2004-04-26 07:09:37 51°19.271 2°47.779 10.584749 3.664966 32.775985 68.154477
2004-04-26 07:09:43 51°19.284 2°47.747 10.587631 3.668339 32.810256 68.154477
2004-04-26 07:09:49 51°19.297 2°47.715 10.585307 3.668233 32.809207 68.188187
2004-04-26 07:09:53 51°19.305 2°47.694 10.585307 3.668233 32.809207 68.188187
2004-04-26 07:09:57 51°19.314 2°47.672 10.587399 3.668549 32.81091 68.120768
2004-04-26 07:10:03 51°19.326 2°47.64 10.586887 3.66876 32.813728 68.154477
2004-04-26 07:10:05 51°19.331 2°47.63 10.59042 3.668128 32.806716 68.154477
2004-04-26 07:10:13 51°19.348 2°47.587 10.592883 3.668128 32.807437 68.087059
2004-04-26 07:10:18 51°19.359 2°47.56 10.590374 3.668339 32.809534 68.154477
2004-04-26 07:10:22 51°19.368 2°47.539 10.590374 3.668339 32.809534 68.154477
2004-04-26 07:10:27 51°19.379 2°47.513 10.591768 3.663913 32.765502 68.188187
2004-04-26 07:10:33 51°19.392 2°47.481 10.593209 3.660646 32.731568 68.154477
2004-04-26 07:10:38 51°19.403 2°47.454 10.5986 3.664334 32.766813 68.154477
2004-04-26 07:10:42 51°19.412 2°47.433 10.603061 3.668444 32.806976 68.120768
2004-04-26 07:10:49 51°19.427 2°47.396 10.609753 3.663596 32.760196 68.120768
2004-04-26 07:10:53 51°19.435 2°47.374 10.609753 3.663596 32.760196 68.120768
2004-04-26 07:10:58 51°19.446 2°47.348 10.61663 3.667179 32.794396 68.120768
2004-04-26 07:11:02 51°19.455 2°47.327 10.624109 3.665809 32.780048 68.154477
2004-04-26 07:11:07 51°19.466 2°47.3 10.630845 3.670341 32.821518 68.120768
2004-04-26 07:11:13 51°19.479 2°47.268 10.631588 3.669603 32.811295 68.188187
2004-04-26 07:11:18 51°19.488 2°47.241 10.636884 3.665177 32.762955 68.188187
2004-04-26 07:11:21 51°19.494 2°47.225 10.636884 3.665177 32.762955 68.188187
2004-04-26 07:11:27 51°19.506 2°47.193 10.644222 3.672659 32.831593 68.120768
2004-04-26 07:11:33 51°19.518 2°47.161 10.650723 3.675399 32.853068 68.154477
2004-04-26 07:11:37 51°19.527 2°47.14 10.650305 3.673186 32.826736 68.154477
2004-04-26 07:11:43 51°19.539 2°47.108 10.643061 3.676979 32.860848 68.120768
2004-04-26 07:11:47 51°19.547 2°47.088 10.628569 3.680246 32.88972 68.154477
2004-04-26 07:11:53 51°19.559 2°47.056 10.628569 3.680246 32.88972 68.154477
2004-04-26 07:11:57 51°19.568 2°47.035 10.610032 3.680351 32.884991 68.120768
2004-04-26 07:12:03 51°19.58 2°47.004 10.599855 3.681827 32.894602 68.154477
2004-04-26 07:12:09 51°19.592 2°46.972 10.584563 3.683934 32.914109 68.120768
2004-04-26 07:12:13 51°19.6 2°46.951 10.57601 3.685726 32.936257 68.154477
2004-04-26 07:12:18 51°19.61 2°46.925 10.57601 3.685726 32.936257 68.154477
2004-04-26 07:12:23 51°19.62 2°46.899 10.562526 3.69226 33.009927 68.120768
2004-04-26 07:12:26 51°19.626 2°46.883 10.558341 3.701007 33.107141 68.188187
2004-04-26 07:12:33 51°19.64 2°46.846 10.55011 3.700375 33.110303 68.188187
2004-04-26 07:12:38 51°19.651 2°46.82 10.546435 3.704801 33.167503 68.188187
2004-04-26 07:12:43 51°19.661 2°46.794 10.540947 3.707436 33.203977 68.154477
2004-04-26 07:12:47 51°19.669 2°46.773 10.540947 3.707436 33.203977 68.154477
2004-04-26 07:12:53 51°19.681 2°46.742 10.546063 3.709017 33.227043 68.154477
2004-04-26 07:12:57 51°19.689 2°46.721 10.545459 3.709544 33.240342 68.154477
2004-04-26 07:13:02 51°19.699 2°46.694 10.538342 3.70712 33.22348 68.154477
2004-04-26 07:13:07 51°19.709 2°46.668 10.538063 3.712284 33.281588 68.154477
2004-04-26 07:13:13 51°19.721 2°46.637 10.534109 3.702061 33.182523 68.154477
2004-04-26 07:13:18 51°19.731 2°46.61 10.532387 3.705118 33.213743 68.188187
2004-04-26 07:13:23 51°19.741 2°46.584 10.532387 3.705118 33.213743 68.188187
2004-04-26 07:13:27 51°19.749 2°46.563 10.531597 3.710492 33.268106 68.188187
2004-04-26 07:13:33 51°19.761 2°46.531 10.531038 3.710703 33.275338 68.154477
2004-04-26 07:13:38 51°19.771 2°46.505 10.530247 3.711019 33.27996 68.221896
2004-04-26 07:13:41 51°19.777 2°46.488 10.531364 3.710914 33.281107 68.188187
2004-04-26 07:13:49 51°19.793 2°46.446 10.52848 3.704802 33.222294 68.154477
2004-04-26 07:13:53 51°19.801 2°46.425 10.52848 3.704802 33.222294 68.154477
2004-04-26 07:13:57 51°19.809 2°46.404 10.52392 3.70438 33.217355 68.188187
2004-04-26 07:14:03 51°19.821 2°46.372 10.52378 3.710071 33.276356 68.120768
2004-04-26 07:14:07 51°19.83 2°46.351 10.518941 3.710282 33.279193 68.188187
2004-04-26 07:14:13 51°19.842 2°46.32 10.518616 3.709966 33.277503 68.154477
2004-04-26 07:14:17 51°19.85 2°46.299 10.516894 3.70849 33.262773 68.154477
2004-04-26 07:14:22 51°19.86 2°46.272 10.516894 3.70849 33.262773 68.154477
2004-04-26 07:14:26 51°19.869 2°46.251 10.512799 3.710703 33.287802 68.188187
2004-04-26 07:14:33 51°19.883 2°46.214 10.510193 3.708912 33.272846 68.221896
2004-04-26 07:14:38 51°19.893 2°46.187 10.508285 3.709017 33.274632 68.188187
2004-04-26 07:14:42 51°19.901 2°46.166 10.506749 3.712706 33.312935 68.188187
2004-04-26 07:14:47 51°19.911 2°46.139 10.504888 3.709966 33.288504 68.120768
2004-04-26 07:14:53 51°19.919 2°46.105 10.504888 3.709966 33.288504 68.120768
2004-04-26 07:14:58 51°19.926 2°46.076 10.506842 3.709333 33.283657 68.188187
2004-04-26 07:15:03 51°19.932 2°46.047 10.508006 3.70554 33.2487 68.188187
2004-04-26 07:15:07 51°19.935 2°46.023 10.513078 3.711968 33.314377 68.154477
2004-04-26 07:15:13 51°19.941 2°45.987 10.519081 3.711757 33.315944 68.120768
2004-04-26 07:15:18 51°19.945 2°45.956 10.519081 3.711757 33.315944 68.120768
2004-04-26 07:15:23 51°19.949 2°45.926 10.524804 3.711968 33.320988 68.087059
2004-04-26 07:15:27 51°19.952 2°45.902 10.53155 3.712811 33.327943 68.120768
2004-04-26 07:15:33 51°19.957 2°45.865 10.537784 3.712074 33.319103 68.120768
2004-04-26 07:15:37 51°19.96 2°45.841 10.540016 3.711863 33.314793 68.154477
2004-04-26 07:15:42 51°19.964 2°45.811 10.543645 3.703116 33.22303 68.154477
2004-04-26 07:15:46 51°19.967 2°45.786 10.546389 3.713443 33.321037 68.188187
2004-04-26 07:15:52 51°19.972 2°45.75 10.546389 3.713443 33.321037 68.188187
2004-04-26 07:15:57 51°19.976 2°45.719 10.550203 3.711336 33.295583 68.188187
2004-04-26 07:16:02 51°19.98 2°45.689 10.552342 3.703959 33.216806 68.120768
2004-04-26 07:16:07 51°19.985 2°45.659 10.556946 3.717448 33.347076 68.221896
2004-04-26 07:16:12 51°19.989 2°45.629 10.561364 3.719977 33.370864 68.154477
2004-04-26 07:16:17 51°19.993 2°45.599 10.56885 3.722717 33.39308 68.221896
2004-04-26 07:16:22 51°19.997 2°45.569 10.56885 3.722717 33.39308 68.221896
2004-04-26 07:16:27 51°20.001 2°45.539 10.573778 3.716394 33.327744 68.188187
2004-04-26 07:16:33 51°20.006 2°45.503 10.580752 3.721769 33.377728 68.154477
2004-04-26 07:16:37 51°20.01 2°45.479 10.59121 3.721874 33.375105 68.154477
2004-04-26 07:16:42 51°20.014 2°45.449 10.603294 3.726511 33.418457 68.154477
2004-04-26 07:16:48 51°20.02 2°45.413 10.619185 3.729883 33.446974 68.188187
2004-04-26 07:16:52 51°20.023 2°45.389 10.619185 3.729883 33.446974 68.188187
2004-04-26 07:16:56 51°20.026 2°45.365 10.637812 3.720504 33.348948 68.188187
2004-04-26 07:17:02 51°20.031 2°45.33 10.656435 3.719028 33.328358 68.154477
2004-04-26 07:17:07 51°20.036 2°45.3 10.676584 3.732834 33.458026 68.154477
2004-04-26 07:17:13 51°20.041 2°45.264 10.694777 3.727986 33.400836 68.154477
2004-04-26 07:17:17 51°20.045 2°45.241 10.711017 3.736944 33.476954 68.154477
2004-04-26 07:17:22 51°20.049 2°45.211 10.711017 3.736944 33.476954 68.154477
2004-04-26 07:17:27 51°20.053 2°45.181 10.720203 3.736311 33.457409 68.221896
2004-04-26 07:17:33 51°20.058 2°45.145 10.734442 3.732623 33.403756 68.221896
2004-04-26 07:17:38 51°20.063 2°45.116 10.739405 3.731885 33.378082 68.188187
2004-04-26 07:17:41 51°20.065 2°45.098 10.736576 3.733255 33.377808 68.255606
2004-04-26 07:17:47 51°20.071 2°45.062 10.728691 3.745058 33.482111 68.255606
2004-04-26 07:17:53 51°20.077 2°45.027 10.728691 3.745058 33.482111 68.255606
2004-04-26 07:17:57 51°20.081 2°45.003 10.71742 3.74569 33.477395 68.289315
2004-04-26 07:18:02 51°20.085 2°44.974 10.707213 3.745374 33.462514 68.323024
2004-04-26 07:18:07 51°20.09 2°44.944 10.69603 3.741791 33.420279 68.323024
2004-04-26 07:18:13 51°20.095 2°44.908 10.692921 3.749273 33.491771 68.491571
2004-04-26 07:18:23 51°20.104 2°44.849 10.686609 3.745585 33.459479 68.323024
2004-04-26 07:18:27 51°20.107 2°44.825 10.690183 3.742739 33.436304 68.255606
2004-04-26 07:18:33 51°20.113 2°44.789 10.694499 3.748852 33.507394 68.255606
2004-04-26 07:18:37 51°20.117 2°44.765 10.697933 3.750749 33.53289 68.289315
2004-04-26 07:18:42 51°20.122 2°44.736 10.700949 3.747693 33.507606 68.289315
2004-04-26 07:18:47 51°20.126 2°44.706 10.705728 3.744004 33.473821 68.289315
2004-04-26 07:18:53 51°20.132 2°44.67 10.705728 3.744004 33.473821 68.289315
2004-04-26 07:18:57 51°20.136 2°44.646 10.708095 3.739051 33.424515 68.221896
2004-04-26 07:19:02 51°20.14 2°44.616 10.708002 3.750328 33.53531 68.255606
2004-04-26 07:19:07 51°20.145 2°44.586 10.703733 3.753173 33.562175 68.289315
2004-04-26 07:19:13 51°20.151 2°44.55 10.699696 3.753173 33.55776 68.221896
2004-04-26 07:19:17 51°20.154 2°44.527 10.697144 3.752646 33.549571 68.221896
2004-04-26 07:19:22 51°20.159 2°44.497 10.697144 3.752646 33.549571 68.221896
2004-04-26 07:19:29 51°20.165 2°44.455 10.695613 3.751487 33.535824 68.188187
2004-04-26 07:19:33 51°20.169 2°44.431 10.695149 3.755492 33.576431 68.289315
2004-04-26 07:19:38 51°20.174 2°44.402 10.701088 3.753068 33.552297 68.221896
2004-04-26 07:19:42 51°20.177 2°44.378 10.70081 3.755281 33.578012 68.255606
2004-04-26 07:19:47 51°20.182 2°44.348 10.701923 3.756124 33.588617 68.289315
2004-04-26 07:19:53 51°20.187 2°44.312 10.701923 3.756124 33.588617 68.289315
2004-04-26 07:19:57 51°20.191 2°44.288 10.708002 3.754754 33.576446 68.221896
2004-04-26 07:20:02 51°20.196 2°44.258 10.713523 3.754016 33.568363 68.255606
2004-04-26 07:20:07 51°20.201 2°44.229 10.713708 3.756756 33.593442 68.255606
2004-04-26 07:20:11 51°20.205 2°44.205 10.710739 3.75781 33.603937 68.221896
2004-04-26 07:20:18 51°20.212 2°44.163 10.708512 3.759075 33.615796 68.255606
2004-04-26 07:20:23 51°20.219 2°44.134 10.708512 3.759075 33.615796 68.255606
2004-04-26 07:20:27 51°20.224 2°44.112 10.707863 3.758759 33.608226 68.221896
2004-04-26 07:20:33 51°20.234 2°44.078 10.711528 3.7576 33.594473 68.221896
2004-04-26 07:20:38 51°20.242 2°44.05 10.70313 3.759918 33.61535 68.255606
2004-04-26 07:20:43 51°20.251 2°44.022 10.693988 3.757599 33.591528 68.255606
2004-04-26 07:20:49 51°20.261 2°43.988 10.690926 3.758864 33.605592 68.221896
2004-04-26 07:20:53 51°20.268 2°43.966 10.690926 3.758864 33.605592 68.221896
2004-04-26 07:20:57 51°20.275 2°43.944 10.6932 3.763502 33.652507 68.289315
2004-04-26 07:21:02 51°20.284 2°43.916 10.678997 3.762658 33.643373 68.255606
2004-04-26 07:21:09 51°20.297 2°43.878 10.677001 3.755808 33.578107 68.221896
2004-04-26 07:21:13 51°20.304 2°43.856 10.668321 3.761499 33.641414 68.255606
2004-04-26 07:21:18 51°20.312 2°43.828 10.658803 3.760129 33.630716 68.221896
2004-04-26 07:21:23 51°20.321 2°43.8 10.658803 3.760129 33.630716 68.221896
2004-04-26 07:21:38 51°20.347 2°43.716 10.668181 3.759918 33.641895 68.221896
2004-04-26 07:21:43 51°20.355 2°43.688 10.665396 3.761816 33.667447 68.188187
2004-04-26 07:21:47 51°20.362 2°43.665 10.653602 3.759286 33.649619 68.255606
2004-04-26 07:21:53 51°20.372 2°43.632 10.653602 3.759286 33.649619 68.255606
2004-04-26 07:21:57 51°20.379 2°43.609 10.647101 3.759919 33.657401 68.188187
2004-04-26 07:22:03 51°20.39 2°43.575 10.631867 3.760973 33.667169 68.255606
2004-04-26 07:22:07 51°20.397 2°43.553 10.62476 3.762132 33.678728 68.188187
2004-04-26 07:22:13 51°20.408 2°43.52 10.613842 3.760973 33.668647 68.221896
2004-04-26 07:22:18 51°20.416 2°43.491 10.606593 3.763291 33.696943 68.221896
2004-04-26 07:22:23 51°20.425 2°43.463 10.606593 3.763291 33.696943 68.221896
2004-04-26 07:22:29 51°20.435 2°43.429 10.595533 3.759076 33.661555 68.221896
2004-04-26 07:22:31 51°20.438 2°43.418 10.58949 3.759708 33.677475 68.221896
2004-04-26 07:22:37 51°20.448 2°43.384 10.58289 3.756968 33.657533 68.188187
2004-04-26 07:22:43 51°20.458 2°43.349 10.572941 3.755387 33.650632 68.221896
2004-04-26 07:22:47 51°20.465 2°43.326 10.562573 3.75486 33.65203 68.221896
2004-04-26 07:22:53 51°20.475 2°43.292 10.562573 3.75486 33.65203 68.221896
2004-04-26 07:22:57 51°20.481 2°43.269 10.555039 3.751488 33.627241 68.221896
2004-04-26 07:23:02 51°20.49 2°43.241 10.547226 3.753701 33.655995 68.188187
2004-04-26 07:23:07 51°20.498 2°43.213 10.541505 3.742214 33.547219 68.221896
2004-04-26 07:23:13 51°20.508 2°43.178 10.527875 3.751804 33.650375 68.154477
2004-04-26 07:23:18 51°20.516 2°43.15 10.523827 3.748959 33.632314 68.221896
2004-04-26 07:23:23 51°20.525 2°43.121 10.523827 3.748959 33.632314 68.221896
2004-04-26 07:23:26 51°20.529 2°43.104 10.510938 3.749697 33.646349 68.188187
2004-04-26 07:23:33 51°20.538 2°43.063 10.495579 3.746746 33.625006 68.221896
2004-04-26 07:23:37 51°20.542 2°43.039 10.487479 3.747168 33.635144 68.221896
2004-04-26 07:23:43 51°20.547 2°43.003 10.490133 3.7478 33.648877 68.188187
2004-04-26 07:23:46 51°20.549 2°42.985 10.490133 3.7478 33.648877 68.188187
2004-04-26 07:23:53 51°20.553 2°42.942 10.482405 3.743901 33.61878 68.221896
2004-04-26 07:23:57 51°20.555 2°42.917 10.486315 3.748222 33.673122 68.255606
2004-04-26 07:24:02 51°20.557 2°42.886 10.489202 3.742109 33.623094 68.289315
2004-04-26 07:24:09 51°20.56 2°42.843 10.4926 3.742742 33.636839 68.255606
2004-04-26 07:24:13 51°20.561 2°42.818 10.49381 3.740423 33.618828 67.648836
2004-04-26 07:24:17 51°20.563 2°42.794 10.499023 3.739686 33.614411 64.817247
2004-04-26 07:24:22 51°20.565 2°42.762 10.499023 3.739686 33.614411 64.817247
2004-04-26 07:24:26 51°20.567 2°42.738 10.503445 3.731992 33.537421 62.120494
2004-04-26 07:24:33 51°20.569 2°42.694 10.50647 3.739686 33.613669 59.356324
2004-04-26 07:24:38 51°20.571 2°42.663 10.504608 3.736102 33.575586 58.142785
2004-04-26 07:24:42 51°20.573 2°42.639 10.500792 3.737578 33.586645 56.828118
2004-04-26 07:24:47 51°20.574 2°42.608 10.49637 3.736102 33.570402 55.446033
2004-04-26 07:24:53 51°20.577 2°42.57 10.49637 3.736102 33.570402 55.446033
2004-04-26 07:24:57 51°20.578 2°42.546 10.496277 3.734521 33.550886 55.108939
2004-04-26 07:25:02 51°20.58 2°42.514 10.493205 3.734205 33.545504 54.401042
2004-04-26 07:25:07 51°20.583 2°42.483 10.491203 3.74095 33.613719 55.176358
2004-04-26 07:25:13 51°20.586 2°42.446 10.490877 3.737051 33.576929 56.996665
2004-04-26 07:25:17 51°20.587 2°42.421 10.49004 3.741793 33.626605 58.682136
2004-04-26 07:25:22 51°20.589 2°42.39 10.49004 3.741793 33.626605 58.682136
2004-04-26 07:25:29 51°20.592 2°42.347 10.487712 3.739264 33.602777 60.603571
2004-04-26 07:25:33 51°20.594 2°42.322 10.491343 3.725142 33.462246 63.50258
2004-04-26 07:25:38 51°20.596 2°42.291 10.491436 3.72999 33.51369 66.233042
2004-04-26 07:25:41 51°20.597 2°42.272 10.490645 3.738737 33.601952 68.55899
2004-04-26 07:25:47 51°20.6 2°42.234 10.494369 3.739686 33.613669 68.255606
2004-04-26 07:25:53 51°20.603 2°42.197 10.494369 3.739686 33.613669 68.255606
2004-04-26 07:25:57 51°20.605 2°42.172 10.495579 3.734838 33.563672 68.255606
2004-04-26 07:26:02 51°20.607 2°42.14 10.494555 3.736102 33.577808 68.289315
2004-04-26 07:26:07 51°20.609 2°42.109 10.499116 3.737999 33.596051 68.221896
2004-04-26 07:26:13 51°20.612 2°42.072 10.501351 3.739159 33.607654 68.221896
2004-04-26 07:26:19 51°20.614 2°42.034 10.501351 3.739159 33.607654 68.221896
2004-04-26 07:26:23 51°20.616 2°42.009 10.506842 3.725669 33.471946 68.255606
2004-04-26 07:26:29 51°20.619 2°41.972 10.511915 3.738632 33.599415 68.221896
2004-04-26 07:26:33 51°20.621 2°41.946 10.51494 3.729357 33.505147 68.255606
2004-04-26 07:26:38 51°20.623 2°41.915 10.513776 3.739475 33.606369 68.221896
2004-04-26 07:26:43 51°20.625 2°41.884 10.51601 3.740107 33.60899 68.255606
2004-04-26 07:26:49 51°20.628 2°41.846 10.520523 3.743479 33.63977 68.255606
2004-04-26 07:26:53 51°20.63 2°41.821 10.520523 3.743479 33.63977 68.255606
2004-04-26 07:26:58 51°20.632 2°41.79 10.522338 3.739053 33.591036 68.255606
2004-04-26 07:27:03 51°20.635 2°41.758 10.525502 3.735575 33.554768 68.255606
2004-04-26 07:27:06 51°20.636 2°41.739 10.52378 3.741161 33.609157 68.221896
2004-04-26 07:27:14 51°20.64 2°41.689 10.525595 3.740318 33.59776 68.221896
2004-04-26 07:27:19 51°20.642 2°41.658 10.526572 3.742109 33.614199 68.289315
2004-04-26 07:27:25 51°20.645 2°41.621 10.525828 3.739158 33.581723 68.221896
2004-04-26 07:27:30 51°20.648 2°41.589 10.524851 3.734416 33.532822 68.255606
2004-04-26 07:27:34 51°20.65 2°41.565 10.524851 3.734416 33.532822 68.255606
2004-04-26 07:27:43 51°20.655 2°41.509 10.529829 3.738947 33.575174 68.221896
2004-04-26 07:27:47 51°20.657 2°41.484 10.52406 3.745587 33.642314 68.289315
2004-04-26 07:27:53 51°20.66 2°41.446 10.52406 3.745587 33.642314 68.289315
2004-04-26 07:27:57 51°20.662 2°41.421 10.518197 3.738842 33.57412 68.289315
2004-04-26 07:28:02 51°20.665 2°41.39 10.514707 3.744006 33.626503 68.255606
2004-04-26 07:28:07 51°20.667 2°41.359 10.511729 3.748327 33.668981 68.221896
2004-04-26 07:28:13 51°20.67 2°41.322 10.510938 3.744217 33.627128 68.289315
2004-04-26 07:28:18 51°20.673 2°41.29 10.51252 3.749065 33.678587 68.221896
2004-04-26 07:28:23 51°20.676 2°41.259 10.51252 3.749065 33.678587 68.221896
2004-04-26 07:28:27 51°20.678 2°41.234 10.515219 3.73821 33.572977 68.221896
2004-04-26 07:28:33 51°20.681 2°41.197 10.518243 3.744006 33.633175 68.221896
2004-04-26 07:28:38 51°20.684 2°41.166 10.520477 3.732308 33.519138 68.221896
2004-04-26 07:28:43 51°20.687 2°41.135 10.523874 3.732203 33.519562 68.255606
2004-04-26 07:28:46 51°20.689 2°41.116 10.523129 3.744639 33.643209 68.221896
2004-04-26 07:28:53 51°20.692 2°41.072 10.523129 3.744639 33.643209 68.221896
2004-04-26 07:28:58 51°20.695 2°41.041 10.526339 3.746536 33.662189 68.188187
2004-04-26 07:29:03 51°20.697 2°41.01 10.53369 3.745482 33.650161 68.221896
2004-04-26 07:29:07 51°20.7 2°40.985 10.538342 3.748749 33.679136 68.255606
2004-04-26 07:29:13 51°20.703 2°40.948 10.543738 3.745903 33.649185 68.255606
2004-04-26 07:29:17 51°20.705 2°40.923 10.545645 3.735364 33.542305 68.221896
2004-04-26 07:29:23 51°20.709 2°40.885 10.545645 3.735364 33.542305 68.221896
2004-04-26 07:29:27 51°20.711 2°40.86 10.549458 3.745482 33.64126 68.255606
2004-04-26 07:29:33 51°20.715 2°40.823 10.550342 3.734521 33.527963 68.221896
2004-04-26 07:29:38 51°20.717 2°40.792 10.551598 3.754124 33.719538 68.255606
2004-04-26 07:29:43 51°20.72 2°40.76 10.551691 3.756442 33.739016 68.255606
2004-04-26 07:29:49 51°20.724 2°40.723 10.550668 3.740528 33.575441 68.255606
2004-04-26 07:29:53 51°20.726 2°40.698 10.550668 3.740528 33.575441 68.255606
2004-04-26 07:29:58 51°20.729 2°40.667 10.552388 3.739685 33.564796 68.255606
2004-04-26 07:30:03 51°20.732 2°40.637 10.548668 3.754018 33.7066 68.289315
2004-04-26 07:30:06 51°20.734 2°40.618 10.546156 3.758445 33.750867 68.255606
2004-04-26 07:30:13 51°20.738 2°40.575 10.547738 3.744744 33.613137 68.255606
2004-04-26 07:30:18 51°20.741 2°40.544 10.542017 3.747589 33.640099 68.289315
2004-04-26 07:30:23 51°20.744 2°40.513 10.542017 3.747589 33.640099 68.289315
2004-04-26 07:30:27 51°20.746 2°40.488 10.538295 3.75581 33.722288 68.255606
2004-04-26 07:30:33 51°20.75 2°40.451 10.536481 3.749486 33.659805 68.289315
2004-04-26 07:30:37 51°20.752 2°40.426 10.537412 3.76266 33.793779 68.323024
2004-04-26 07:30:43 51°20.756 2°40.389 10.532201 3.753807 33.705977 67.716255
2004-04-26 07:30:49 51°20.76 2°40.352 10.532201 3.753807 33.705977 67.716255
2004-04-26 07:30:53 51°20.762 2°40.327 10.527642 3.753913 33.710001 65.828529
2004-04-26 07:30:57 51°20.764 2°40.302 10.525223 3.768563 33.85805 62.862101
2004-04-26 07:31:02 51°20.767 2°40.271 10.52499 3.761185 33.787951 59.895674
2004-04-26 07:31:07 51°20.77 2°40.24 10.528805 3.758656 33.762644 57.637144
2004-04-26 07:31:13 51°20.773 2°40.203 10.525502 3.776151 33.941484 55.884255
2004-04-26 07:31:18 51°20.776 2°40.172 10.525502 3.776151 33.941484 55.884255
2004-04-26 07:31:23 51°20.778 2°40.14 10.52178 3.766876 33.851617 54.097657
2004-04-26 07:31:27 51°20.779 2°40.115 10.519965 3.760764 33.791924 52.142512
2004-04-26 07:31:33 51°20.781 2°40.077 10.522524 3.771092 33.896062 51.164939
2004-04-26 07:31:38 51°20.783 2°40.046 10.515824 3.7693 33.879617 48.940118
2004-04-26 07:31:41 51°20.784 2°40.027 10.517825 3.761712 33.803653 47.355777
2004-04-26 07:31:47 51°20.785 2°39.99 10.51815 3.778786 33.976856 45.029828
2004-04-26 07:31:53 51°20.787 2°39.952 10.51815 3.778786 33.976856 45.029828
2004-04-26 07:31:58 51°20.789 2°39.921 10.514893 3.763504 33.823823 43.917418
2004-04-26 07:32:02 51°20.79 2°39.896 10.513311 3.784794 34.039293 43.24323
2004-04-26 07:32:07 51°20.791 2°39.865 10.510938 3.785005 34.042907 41.861144
2004-04-26 07:32:12 51°20.792 2°39.833 10.510891 3.785321 34.046826 40.9847
2004-04-26 07:32:17 51°20.793 2°39.802 10.506889 3.785848 34.053609 39.602614
2004-04-26 07:32:22 51°20.793 2°39.771 10.506889 3.785848 34.053609 39.602614
2004-04-26 07:32:29 51°20.795 2°39.728 10.507401 3.785953 34.055416 37.681178
2004-04-26 07:32:32 51°20.796 2°39.709 10.510286 3.783318 34.031262 35.793452
2004-04-26 07:32:36 51°20.797 2°39.684 10.510054 3.785953 34.058421 34.242819
2004-04-26 07:32:42 51°20.798 2°39.647 10.511077 3.78648 34.063703 33.534922
2004-04-26 07:32:46 51°20.799 2°39.622 10.509123 3.786269 34.063844 32.152836
2004-04-26 07:32:53 51°20.801 2°39.578 10.509123 3.786269 34.063844 32.152836
2004-04-26 07:32:58 51°20.802 2°39.547 10.503026 3.781632 34.017363 31.579777
2004-04-26 07:33:03 51°20.802 2°39.516 10.496882 3.786164 34.063539 30.871879
2004-04-26 07:33:07 51°20.804 2°39.491 10.493438 3.785215 34.053279 30.096563
2004-04-26 07:33:13 51°20.805 2°39.454 10.49139 3.784267 34.043771 29.523503
2004-04-26 07:33:18 51°20.806 2°39.423 10.484779 3.777943 33.982645 29.894306
2004-04-26 07:33:23 51°20.807 2°39.392 10.484779 3.777943 33.982645 29.894306
2004-04-26 07:33:29 51°20.808 2°39.354 10.478959 3.78121 34.01764 30.534785
2004-04-26 07:33:33 51°20.809 2°39.329 10.475747 3.779946 34.006464 31.343811
2004-04-26 07:33:38 51°20.81 2°39.297 10.472208 3.778576 33.999482 32.321383
2004-04-26 07:33:43 51°20.812 2°39.266 10.47151 3.777522 33.993417 32.793315
2004-04-26 07:33:47 51°20.813 2°39.241 10.467551 3.776679 33.987965 33.298956
2004-04-26 07:33:53 51°20.814 2°39.203 10.467551 3.776679 33.987965 33.298956
2004-04-26 07:33:57 51°20.815 2°39.178 10.468623 3.775941 33.985069 33.197828
2004-04-26 07:34:02 51°20.816 2°39.147 10.465176 3.775414 33.983536 33.63605
2004-04-26 07:34:09 51°20.817 2°39.103 10.466248 3.774887 33.981252 34.006853
2004-04-26 07:34:12 51°20.818 2°39.084 10.464478 3.77436 33.977468 33.602341
2004-04-26 07:34:17 51°20.819 2°39.053 10.464478 3.77436 33.977468 33.602341
2004-04-26 07:34:22 51°20.82 2°39.022 10.463826 3.77436 33.981219 33.872016
2004-04-26 07:34:27 51°20.821 2°38.99 10.464851 3.774465 33.981526 34.074272
2004-04-26 07:34:32 51°20.823 2°38.959 10.468995 3.774255 33.982413 34.74846
2004-04-26 07:34:37 51°20.824 2°38.927 10.472487 3.774571 33.985585 34.78217
2004-04-26 07:34:41 51°20.825 2°38.902 10.472441 3.775414 33.994793 34.849589
2004-04-26 07:34:47 51°20.826 2°38.864 10.474164 3.776152 34.003696 34.681042
2004-04-26 07:34:53 51°20.827 2°38.826 10.474164 3.776152 34.003696 34.681042
2004-04-26 07:34:57 51°20.827 2°38.8 10.47137 3.776468 34.006117 34.984426
2004-04-26 07:35:02 51°20.829 2°38.769 10.473931 3.776784 34.007036 35.051845
2004-04-26 07:35:07 51°20.83 2°38.737 10.475607 3.776784 34.004783 34.276529
2004-04-26 07:35:12 51°20.831 2°38.705 10.47854 3.777206 34.00826 33.534922
2004-04-26 07:35:17 51°20.832 2°38.674 10.479797 3.77689 34.00584 32.692187
2004-04-26 07:35:21 51°20.833 2°38.648 10.479797 3.77689 34.00584 32.692187
2004-04-26 07:35:27 51°20.834 2°38.61 10.480542 3.776363 33.999803 32.152836
2004-04-26 07:35:33 51°20.835 2°38.572 10.479797 3.776468 34.00011 31.680905
2004-04-26 07:35:38 51°20.837 2°38.54 10.475654 3.775941 33.994073 31.613486
2004-04-26 07:35:42 51°20.838 2°38.515 10.474443 3.775203 33.983673 31.546067
2004-04-26 07:35:49 51°20.839 2°38.47 10.472068 3.774255 33.97266 31.714614
2004-04-26 07:35:53 51°20.84 2°38.445 10.472068 3.774255 33.97266 31.714614
2004-04-26 07:35:58 51°20.841 2°38.413 10.470578 3.773622 33.966319 31.613486
2004-04-26 07:36:02 51°20.841 2°38.388 10.471882 3.772674 33.956808 31.546067
2004-04-26 07:36:08 51°20.843 2°38.35 10.47286 3.772041 33.951967 31.276392
2004-04-26 07:36:12 51°20.844 2°38.324 10.468297 3.771514 33.949681 31.141554
2004-04-26 07:36:17 51°20.845 2°38.293 10.468902 3.771409 33.948624 31.006717
2004-04-26 07:36:22 51°20.847 2°38.261 10.468902 3.771409 33.948624 31.006717
2004-04-26 07:36:25 51°20.847 2°38.242 10.469274 3.770671 33.942725 31.714614
2004-04-26 07:36:33 51°20.849 2°38.191 10.464059 3.770566 33.941668 31.815742
2004-04-26 07:36:37 51°20.85 2°38.165 10.463034 3.77025 33.937748 32.658477
2004-04-26 07:36:42 51°20.851 2°38.133 10.464245 3.770039 33.937883 33.029281
2004-04-26 07:36:47 51°20.852 2°38.101 10.459029 3.770039 33.939382 33.872016
2004-04-26 07:36:53 51°20.853 2°38.063 10.459029 3.770039 33.939382 33.872016
2004-04-26 07:36:57 51°20.854 2°38.038 10.461171 3.77025 33.941496 34.815879
2004-04-26 07:37:01 51°20.855 2°38.012 10.459961 3.77046 33.94361 36.197965
2004-04-26 07:37:07 51°20.856 2°37.974 10.457958 3.770355 33.944801 37.108118
2004-04-26 07:37:12 51°20.858 2°37.942 10.460054 3.770671 33.950972 38.321657
2004-04-26 07:37:17 51°20.859 2°37.91 10.463453 3.770777 33.951279 39.501486
2004-04-26 07:37:22 51°20.86 2°37.879 10.463453 3.770777 33.951279 39.501486
2004-04-26 07:37:27 51°20.861 2°37.847 10.46527 3.771304 33.957315 40.276802
2004-04-26 07:37:32 51°20.862 2°37.815 10.467831 3.771515 33.960929 41.153247
2004-04-26 07:37:38 51°20.863 2°37.777 10.467645 3.772042 33.967716 41.254375
2004-04-26 07:37:42 51°20.864 2°37.752 10.465922 3.772885 33.976174 41.557759
2004-04-26 07:37:46 51°20.865 2°37.727 10.458144 3.773622 33.981324 41.52405
2004-04-26 07:37:53 51°20.867 2°37.683 10.458144 3.773622 33.981324 41.52405
2004-04-26 07:37:56 51°20.868 2°37.664 10.453859 3.774255 33.984665 40.816153
2004-04-26 07:38:01 51°20.869 2°37.632 10.449201 3.775836 33.999773 40.917281
2004-04-26 07:38:07 51°20.87 2°37.595 10.439139 3.777206 34.012016 40.479059
2004-04-26 07:38:12 51°20.872 2°37.563 10.430753 3.778365 34.026652 39.905999
2004-04-26 07:38:17 51°20.873 2°37.532 10.427165 3.779735 34.044911 39.939708
2004-04-26 07:38:21 51°20.874 2°37.507 10.427165 3.779735 34.044911 39.939708
2004-04-26 07:38:27 51°20.876 2°37.469 10.422878 3.780262 34.051704 39.939708
2004-04-26 07:38:32 51°20.877 2°37.437 10.424416 3.781106 34.068445 40.613896
2004-04-26 07:38:36 51°20.878 2°37.412 10.423111 3.781844 34.081123 41.288084
2004-04-26 07:38:42 51°20.88 2°37.374 10.417706 3.78216 34.090325 42.501623
2004-04-26 07:38:47 51°20.881 2°37.343 10.413931 3.78216 34.095601 42.872426
2004-04-26 07:38:53 51°20.883 2°37.305 10.413931 3.78216 34.095601 42.872426
2004-04-26 07:38:57 51°20.884 2°37.28 10.413884 3.782476 34.102547 42.805007
2004-04-26 07:39:02 51°20.885 2°37.248 10.408431 3.783003 34.107841 42.434204
2004-04-26 07:39:07 51°20.886 2°37.217 10.40624 3.782898 34.109045 41.321794
2004-04-26 07:39:13 51°20.887 2°37.179 10.403397 3.78353 34.118416 40.479059
2004-04-26 07:39:17 51°20.888 2°37.154 10.401532 3.783214 34.119012 40.782443
2004-04-26 07:39:22 51°20.89 2°37.122 10.401532 3.783214 34.119012 40.782443
2004-04-26 07:39:25 51°20.89 2°37.103 10.399202 3.78353 34.124454 40.074546
2004-04-26 07:39:33 51°20.893 2°37.053 10.397244 3.783425 34.126415 39.83858
2004-04-26 07:39:37 51°20.893 2°37.028 10.391463 3.78353 34.130494 39.535195
2004-04-26 07:39:42 51°20.895 2°36.996 10.39095 3.783847 34.135183 38.995845
2004-04-26 07:39:47 51°20.896 2°36.965 10.389505 3.783741 34.136389 38.591332
2004-04-26 07:39:53 51°20.898 2°36.927 10.389505 3.783741 34.136389 38.591332
2004-04-26 07:39:57 51°20.898 2°36.902 10.390018 3.783741 34.1379 38.15311
2004-04-26 07:40:02 51°20.9 2°36.871 10.389738 3.783636 34.139863 38.051982
2004-04-26 07:40:07 51°20.901 2°36.839 10.388992 3.784057 34.14788 37.917144
2004-04-26 07:40:12 51°20.902 2°36.808 10.38363 3.784584 34.154691 37.344084
2004-04-26 07:40:17 51°20.904 2°36.777 10.382931 3.784479 34.154387 36.602477
2004-04-26 07:40:22 51°20.905 2°36.745 10.382931 3.784479 34.154387 36.602477
2004-04-26 07:40:28 51°20.906 2°36.708 10.381392 3.784584 34.156203 36.029418
2004-04-26 07:40:32 51°20.907 2°36.683 10.373465 3.784584 34.158471 35.287811
2004-04-26 07:40:36 51°20.908 2°36.657 10.369361 3.785006 34.163467 35.456358
2004-04-26 07:40:42 51°20.91 2°36.62 10.363204 3.785217 34.167857 35.186683
2004-04-26 07:40:47 51°20.911 2°36.588 10.368428 3.785006 34.168006 34.815879
2004-04-26 07:40:53 51°20.913 2°36.551 10.368428 3.785006 34.168006 34.815879
2004-04-26 07:41:02 51°20.915 2°36.494 10.367915 3.784901 34.173756 35.085554
2004-04-26 07:41:06 51°20.916 2°36.469 10.367868 3.78469 34.176177 35.692324
2004-04-26 07:41:12 51°20.917 2°36.431 10.36563 3.784479 34.176327 36.299093
2004-04-26 07:41:17 51°20.919 2°36.399 10.36563 3.784479 34.176327 36.299093
2004-04-26 07:41:23 51°20.92 2°36.362 10.363298 3.784479 34.177842 35.995708
2004-04-26 07:41:28 51°20.922 2°36.33 10.35882 3.784585 34.177388 35.287811
2004-04-26 07:41:32 51°20.922 2°36.306 10.355461 3.784374 34.175267 34.343947
2004-04-26 07:41:37 51°20.924 2°36.274 10.357561 3.784479 34.177842 33.939435
2004-04-26 07:41:42 51°20.925 2°36.243 10.356674 3.783847 34.172992 33.939435
2004-04-26 07:41:47 51°20.926 2°36.211 10.355322 3.783847 34.172992 34.546204
2004-04-26 07:41:52 51°20.928 2°36.18 10.355322 3.783847 34.172992 34.546204
2004-04-26 07:41:57 51°20.929 2°36.149 10.350657 3.783636 34.1739 34.714751
2004-04-26 07:42:01 51°20.93 2°36.124 10.347064 3.783004 34.169807 35.35523
2004-04-26 07:42:08 51°20.932 2°36.081 10.344219 3.783004 34.171321 34.917007
2004-04-26 07:42:11 51°20.933 2°36.062 10.346178 3.783004 34.172079 34.714751
2004-04-26 07:42:17 51°20.934 2°36.025 10.338993 3.782793 34.172986 34.074272
2004-04-26 07:42:21 51°20.936 2°36 10.338993 3.782793 34.172986 34.074272
2004-04-26 07:42:27 51°20.937 2°35.963 10.331294 3.782688 34.174198 33.602341
2004-04-26 07:42:33 51°20.939 2°35.926 10.323034 3.782688 34.177228 33.197828
2004-04-26 07:42:37 51°20.94 2°35.901 10.314399 3.782899 34.18238 33.197828
2004-04-26 07:42:42 51°20.941 2°35.87 10.307724 3.783004 34.181926 32.624768
2004-04-26 07:42:47 51°20.942 2°35.839 10.301842 3.782688 34.184047 32.287674
2004-04-26 07:42:53 51°20.944 2°35.802 10.301842 3.782688 34.184047 32.287674
2004-04-26 07:42:57 51°20.945 2°35.777 10.294465 3.782688 34.19087 31.883161
2004-04-26 07:43:01 51°20.946 2°35.753 10.292878 3.78195 34.189505 32.287674
2004-04-26 07:43:09 51°20.949 2°35.703 10.286294 3.781318 34.189961 32.928153
2004-04-26 07:43:12 51°20.949 2°35.685 10.282745 3.780686 34.190417 33.669759
2004-04-26 07:43:17 51°20.95 2°35.654 10.281998 3.780264 34.19148 34.815879
2004-04-26 07:43:22 51°20.952 2°35.623 10.281998 3.780264 34.19148 34.815879
2004-04-26 07:43:27 51°20.953 2°35.592 10.279943 3.779737 34.191482 36.130546
2004-04-26 07:43:33 51°20.954 2°35.555 10.277655 3.77921 34.189965 37.377794
2004-04-26 07:43:37 51°20.955 2°35.53 10.283959 3.77921 34.192242 38.928426
2004-04-26 07:43:42 51°20.957 2°35.499 10.283539 3.778789 34.193307 39.83858
2004-04-26 07:43:45 51°20.958 2°35.481 10.286154 3.775311 34.162037 40.681315
2004-04-26 07:43:53 51°20.96 2°35.431 10.286154 3.775311 34.162037 40.681315
2004-04-26 07:43:57 51°20.961 2°35.406 10.284753 3.778367 34.195131 41.254375
2004-04-26 07:44:01 51°20.961 2°35.381 10.287368 3.777946 34.19164 41.389212
2004-04-26 07:44:07 51°20.963 2°35.344 10.285594 3.778367 34.195891 41.793725
2004-04-26 07:44:13 51°20.964 2°35.306 10.279289 3.778262 34.194069 41.658888
2004-04-26 07:44:17 51°20.966 2°35.281 10.275927 3.778262 34.19179 41.456631
2004-04-26 07:44:22 51°20.967 2°35.25 10.275927 3.778262 34.19179 41.456631
2004-04-26 07:44:27 51°20.968 2°35.219 10.274152 3.778367 34.192094 41.389212
2004-04-26 07:44:33 51°20.97 2°35.181 10.271676 3.777946 34.186325 41.591469
2004-04-26 07:44:37 51°20.97 2°35.156 10.268874 3.77784 34.18754 42.265657
2004-04-26 07:44:42 51°20.972 2°35.124 10.268547 3.77784 34.189818 43.512905
2004-04-26 07:44:47 51°20.973 2°35.093 10.269761 3.777419 34.187085 45.097247
2004-04-26 07:44:52 51°20.975 2°35.061 10.269761 3.777419 34.187085 45.097247
2004-04-26 07:44:57 51°20.976 2°35.03 10.272564 3.776787 34.185265 46.378204
2004-04-26 07:45:02 51°20.978 2°34.998 10.272704 3.776787 34.186784 47.389486
2004-04-26 07:45:09 51°20.98 2°34.954 10.276067 3.77647 34.187393 48.26593
2004-04-26 07:45:13 51°20.981 2°34.929 10.27546 3.776365 34.18481 49.007537
2004-04-26 07:45:17 51°20.982 2°34.904 10.27546 3.776365 34.18481 49.007537
2004-04-26 07:45:22 51°20.984 2°34.872 10.277935 3.776576 34.188456 49.074956
2004-04-26 07:45:27 51°20.986 2°34.841 10.278215 3.77647 34.187393 49.142375
2004-04-26 07:45:33 51°20.988 2°34.803 10.278449 3.776576 34.187696 49.041247
2004-04-26 07:45:42 51°20.991 2°34.746 10.278495 3.776892 34.187847 47.490614
2004-04-26 07:45:46 51°20.992 2°34.721 10.28027 3.776892 34.186328 46.277076
2004-04-26 07:45:53 51°20.994 2°34.677 10.28027 3.776892 34.186328 46.277076
2004-04-26 07:45:56 51°20.995 2°34.658 10.281998 3.776997 34.186631 45.164665
2004-04-26 07:46:02 51°20.997 2°34.62 10.281718 3.777419 34.190883 43.647742
2004-04-26 07:46:09 51°21 2°34.576 10.278869 3.777314 34.18982 42.400494
2004-04-26 07:46:13 51°21.001 2°34.551 10.282652 3.77763 34.192249 41.254375
2004-04-26 07:46:17 51°21.003 2°34.526 10.280597 3.77763 34.192249 39.535195
2004-04-26 07:46:22 51°21.004 2°34.495 10.280597 3.77763 34.192249 39.535195
2004-04-26 07:46:27 51°21.006 2°34.463 10.281578 3.778051 34.194222 37.546341
2004-04-26 07:46:33 51°21.008 2°34.426 10.283025 3.778262 34.194828 36.332802
2004-04-26 07:46:37 51°21.009 2°34.401 10.279569 3.778367 34.195891 34.647332
2004-04-26 07:46:41 51°21.011 2°34.376 10.274993 3.778684 34.199079 33.130409
2004-04-26 07:46:49 51°21.014 2°34.325 10.269902 3.778578 34.198776 31.849452
2004-04-26 07:46:51 51°21.014 2°34.313 10.269902 3.778578 34.198776 31.849452
2004-04-26 07:46:57 51°21.016 2°34.275 10.266398 3.778789 34.202421 30.433657
2004-04-26 07:47:01 51°21.018 2°34.25 10.266165 3.779211 34.204393 28.883024
2004-04-26 07:47:07 51°21.02 2°34.213 10.26467 3.779421 34.209558 27.703195
2004-04-26 07:47:13 51°21.022 2°34.175 10.261167 3.779527 34.213661 26.523366
2004-04-26 07:47:17 51°21.023 2°34.15 10.260139 3.779211 34.212753 25.478375
2004-04-26 07:47:22 51°21.025 2°34.119 10.260139 3.779211 34.212753 25.478375
2004-04-26 07:47:27 51°21.027 2°34.088 10.256915 3.778895 34.213364 24.365965
2004-04-26 07:47:32 51°21.028 2°34.056 10.25243 3.778789 34.214582 23.759195
2004-04-26 07:47:37 51°21.03 2°34.025 10.254346 3.779 34.218989 22.747913
2004-04-26 07:47:41 51°21.032 2°34 10.252804 3.779211 34.221877 21.635503
2004-04-26 07:47:48 51°21.035 2°33.956 10.254346 3.779 34.222792 20.725349
2004-04-26 07:47:53 51°21.037 2°33.925 10.254346 3.779 34.222792 20.725349
2004-04-26 07:47:56 51°21.038 2°33.907 10.25458 3.779211 34.226441 19.54552
2004-04-26 07:48:02 51°21.04 2°33.869 10.257476 3.779422 34.229329 19.00617
2004-04-26 07:48:07 51°21.042 2°33.838 10.258597 3.779316 34.229787 18.331982
2004-04-26 07:48:12 51°21.043 2°33.807 10.247384 3.779422 34.23085 17.590375
2004-04-26 07:48:17 51°21.045 2°33.776 10.230889 3.779949 34.237691 17.253281
2004-04-26 07:48:22 51°21.046 2°33.745 10.230889 3.779949 34.237691 17.253281
2004-04-26 07:48:26 51°21.047 2°33.72 10.210181 3.780265 34.239359 16.680221
2004-04-26 07:48:32 51°21.048 2°33.683 10.180254 3.780792 34.243917 16.309418
2004-04-26 07:48:37 51°21.05 2°33.652 10.166782 3.782373 34.261395 15.837486
2004-04-26 07:48:42 51°21.051 2°33.621 10.146523 3.783638 34.280257 14.961042
2004-04-26 07:48:48 51°21.053 2°33.584 10.132903 3.745591 33.907777 14.084597
2004-04-26 07:48:52 51°21.054 2°33.559 10.132903 3.745591 33.907777 14.084597
2004-04-26 07:48:57 51°21.056 2°33.528 10.112727 3.745275 33.920432 13.275571
2004-04-26 07:49:02 51°21.057 2°33.497 10.101114 3.7868 34.356492 12.601383
2004-04-26 07:49:08 51°21.059 2°33.459 10.083036 3.787538 34.380795 12.129452
2004-04-26 07:49:12 51°21.06 2°33.435 10.073948 3.788171 34.404056 11.590101
2004-04-26 07:49:16 51°21.061 2°33.41 10.061579 3.788276 34.419702 11.185589
2004-04-26 07:49:22 51°21.063 2°33.372 10.061579 3.788276 34.419702 11.185589
2004-04-26 07:49:27 51°21.064 2°33.341 10.057643 3.788171 34.430922 11.65752
2004-04-26 07:49:32 51°21.066 2°33.31 10.052582 3.787961 34.449541 12.028324
2004-04-26 07:49:37 51°21.068 2°33.279 10.047942 3.787539 34.458348 12.500255
2004-04-26 07:49:42 51°21.07 2°33.249 10.044708 3.787329 34.46853 12.76993
2004-04-26 07:49:46 51°21.073 2°33.224 10.04663 3.787118 34.477178 12.904768
2004-04-26 07:49:53 51°21.081 2°33.183 10.04663 3.787118 34.477178 12.904768
2004-04-26 07:49:58 51°21.089 2°33.155 10.042552 3.786907 34.483519 12.904768
2004-04-26 07:50:03 51°21.099 2°33.129 10.040443 3.786696 34.484464 12.365418
2004-04-26 07:50:07 51°21.108 2°33.109 10.04752 3.787013 34.494615 11.960905
2004-04-26 07:50:13 51°21.123 2°33.081 10.069778 3.786802 34.495562 11.522683
2004-04-26 07:50:18 51°21.137 2°33.06 10.045927 3.786486 34.491581 11.286717
2004-04-26 07:50:22 51°21.149 2°33.046 10.045927 3.786486 34.491581 11.286717
2004-04-26 07:50:28 51°21.168 2°33.027 10.042552 3.786697 34.496035 11.185589
2004-04-26 07:50:33 51°21.186 2°33.014 10.043302 3.786697 34.496035 11.017042
2004-04-26 07:50:37 51°21.2 2°33.006 10.059611 3.786802 34.49479 10.679947
2004-04-26 07:50:42 51°21.218 2°32.995 10.048786 3.787118 34.492599 10.410272
2004-04-26 07:50:48 51°21.239 2°32.981 10.031208 3.787329 34.496282 10.039469
2004-04-26 07:50:52 51°21.253 2°32.971 10.031208 3.787329 34.496282 10.039469
2004-04-26 07:50:56 51°21.267 2°32.961 10.031208 3.787645 34.499491 9.533828
2004-04-26 07:51:02 51°21.289 2°32.948 10.033833 3.787856 34.500088 9.028187
2004-04-26 07:51:07 51°21.307 2°32.936 10.020191 3.787856 34.501631 8.421418
2004-04-26 07:51:12 51°21.326 2°32.926 10.020894 3.787434 34.503526 8.016905
2004-04-26 07:51:17 51°21.345 2°32.918 10.021691 3.786907 34.505123 7.848358
2004-04-26 07:51:22 51°21.364 2°32.912 10.021691 3.786907 34.505123 7.848358
2004-04-26 07:51:26 51°21.379 2°32.907 10.021972 3.786381 34.504404 8.050614
2004-04-26 07:51:32 51°21.403 2°32.901 10.022207 3.78617 34.506897 8.28658
2004-04-26 07:51:37 51°21.422 2°32.896 10.012313 3.785537 34.503563 8.893349
2004-04-26 07:51:42 51°21.441 2°32.892 10.012454 3.785327 34.502967 9.129315
2004-04-26 07:51:53 51°21.484 2°32.882 10.01583 3.784589 34.497789 9.702375
2004-04-26 07:52:00 51°21.511 2°32.876 10.01583 3.784484 34.499808 9.634956
2004-04-26 07:52:03 51°21.523 2°32.874 10.01583 3.784484 34.499808 9.634956
2004-04-26 07:52:09 51°21.546 2°32.868 10.006498 3.784062 34.50016 9.365281
2004-04-26 07:52:14 51°21.566 2°32.864 10.015877 3.784484 34.503671 9.095606
2004-04-26 07:52:19 51°21.585 2°32.859 10.015314 3.784589 34.504742 8.960768
2004-04-26 07:52:24 51°21.605 2°32.855 10.013814 3.784378 34.504145 8.792221
2004-04-26 07:52:29 51°21.624 2°32.85 10.015314 3.784273 34.506165 8.758512
2004-04-26 07:52:33 51°21.64 2°32.846 10.015314 3.784273 34.506165 8.758512
2004-04-26 07:52:38 51°21.659 2°32.841 10.014517 3.784273 34.507711 8.353999
2004-04-26 07:52:44 51°21.682 2°32.836 10.017237 3.784167 34.503549 8.050614
2004-04-26 07:52:48 51°21.698 2°32.832 10.025254 3.784167 34.505094 7.74723
2004-04-26 07:52:54 51°21.721 2°32.826 10.023754 3.784273 34.506938 7.612392
2004-04-26 07:52:59 51°21.741 2°32.822 10.022488 3.784378 34.507236 7.207879
2004-04-26 07:53:04 51°21.76 2°32.817 10.022488 3.784378 34.507236 7.207879
2004-04-26 07:53:09 51°21.779 2°32.812 10.021972 3.784589 34.507833 6.938204
2004-04-26 07:53:14 51°21.799 2°32.807 10.01569 3.784589 34.504742 6.837076
2004-04-26 07:53:20 51°21.822 2°32.802 10.015267 3.785011 34.505935 6.769657
2004-04-26 07:53:25 51°21.841 2°32.797 10.017237 3.7848 34.502248 6.735947
2004-04-26 07:53:28 51°21.853 2°32.795 10.017471 3.784589 34.501651 6.803366
2004-04-26 07:53:34 51°21.876 2°32.789 10.017471 3.784589 34.501651 6.803366
2004-04-26 07:53:39 51°21.896 2°32.785 10.015267 3.785011 34.505935 7.073042
2004-04-26 07:53:44 51°21.915 2°32.78 10.016674 3.784694 34.504267 7.039332
2004-04-26 07:53:49 51°21.935 2°32.775 10.014986 3.784694 34.507358 7.207879
2004-04-26 07:53:54 51°21.954 2°32.77 10.015408 3.784273 34.503074 7.207879
2004-04-26 07:54:00 51°21.978 2°32.764 10.012642 3.784484 34.505216 7.275298
2004-04-26 07:54:05 51°21.997 2°32.759 10.012642 3.784484 34.505216 7.275298
2004-04-26 07:54:08 51°22.009 2°32.756 10.016112 3.784589 34.504742 7.039332
2004-04-26 07:54:14 51°22.032 2°32.749 10.016299 3.784484 34.505989 6.938204
2004-04-26 07:54:19 51°22.051 2°32.744 10.019487 3.784378 34.505691 6.837076
2004-04-26 07:54:24 51°22.071 2°32.739 10.023379 3.784062 34.503251 6.837076
2004-04-26 07:54:29 51°22.09 2°32.734 10.025067 3.783851 34.501109 6.668529